Wetterdaten: Donnerstag, 02.05.2013
Datum Zeit Temp. Aussen +5cm Feuchte Auss Luftdruck Regen Sonnenschein Regendauer UV Solar Windben
02.05.2013 00:00 14,3 C 12,9 C 67 % 1019,3 hPa 0,0 l/m 0 min 0 min 0,0 UV-I 0 W/m 0,0 km/h (0 Bft)
02.05.2013 00:02 14,3 C 12,9 C 68 % 1019,3 hPa 0,0 l/m 0 min 0 min 0,0 UV-I 0 W/m 0,0 km/h (0 Bft)
02.05.2013 00:06 14,2 C 12,9 C 68 % 1019,4 hPa 0,0 l/m 0 min 0 min 0,0 UV-I 0 W/m 0,0 km/h (0 Bft)
02.05.2013 00:08 14,2 C 12,9 C 68 % 1019,4 hPa 0,0 l/m 0 min 0 min 0,0 UV-I 0 W/m 0,0 km/h (0 Bft)
02.05.2013 00:10 14,2 C 12,9 C 68 % 1019,4 hPa 0,0 l/m 0 min 0 min 0,0 UV-I 0 W/m 0,0 km/h (0 Bft)
02.05.2013 00:12 14,2 C 12,9 C 68 % 1019,4 hPa 0,0 l/m 0 min 0 min 0,0 UV-I 0 W/m 2,6 km/h (1 Bft)
02.05.2013 00:14 14,2 C 12,9 C 68 % 1019,4 hPa 0,0 l/m 0 min 0 min 0,0 UV-I 0 W/m 10,3 km/h (2 Bft)
02.05.2013 00:16 14,2 C 12,9 C 68 % 1019,4 hPa 0,0 l/m 0 min 0 min 0,0 UV-I 0 W/m 7,7 km/h (2 Bft)
02.05.2013 00:18 14,1 C 12,9 C 68 % 1019,3 hPa 0,0 l/m 0 min 0 min 0,0 UV-I 0 W/m 0,0 km/h (0 Bft)
02.05.2013 00:20 14,1 C 12,9 C 68 % 1019,3 hPa 0,0 l/m 0 min 0 min 0,0 UV-I 0 W/m 0,0 km/h (0 Bft)
02.05.2013 00:22 14,1 C 12,9 C 68 % 1019,3 hPa 0,0 l/m 0 min 0 min 0,0 UV-I 0 W/m 0,0 km/h (0 Bft)
02.05.2013 00:24 14,0 C 12,9 C 68 % 1019,3 hPa 0,0 l/m 0 min 0 min 0,0 UV-I 0 W/m 2,6 km/h (1 Bft)
02.05.2013 00:26 14,0 C 12,9 C 69 % 1019,3 hPa 0,0 l/m 0 min 0 min 0,0 UV-I 0 W/m 0,0 km/h (0 Bft)
02.05.2013 00:28 14,0 C 12,9 C 69 % 1019,3 hPa 0,0 l/m 0 min 0 min 0,0 UV-I 0 W/m 2,6 km/h (1 Bft)
02.05.2013 00:30 14,0 C 12,9 C 69 % 1019,3 hPa 0,0 l/m 0 min 0 min 0,0 UV-I 0 W/m 5,1 km/h (1 Bft)
02.05.2013 00:32 14,0 C 12,9 C 69 % 1019,3 hPa 0,0 l/m 0 min 0 min 0,0 UV-I 0 W/m 0,0 km/h (0 Bft)
02.05.2013 00:34 14,0 C 12,3 C 69 % 1019,2 hPa 0,0 l/m 0 min 0 min 0,0 UV-I 0 W/m 0,0 km/h (0 Bft)
02.05.2013 00:36 14,0 C 12,3 C 69 % 1019,3 hPa 0,0 l/m 0 min 0 min 0,0 UV-I 0 W/m 0,0 km/h (0 Bft)
02.05.2013 00:38 14,0 C 12,3 C 69 % 1019,2 hPa 0,0 l/m 0 min 0 min 0,0 UV-I 0 W/m 2,6 km/h (1 Bft)
02.05.2013 00:40 14,0 C 12,3 C 69 % 1019,2 hPa 0,0 l/m 0 min 0 min 0,0 UV-I 0 W/m 0,0 km/h (0 Bft)
02.05.2013 00:42 14,0 C 12,3 C 69 % 1019,2 hPa 0,0 l/m 0 min 0 min 0,0 UV-I 0 W/m 0,0 km/h (0 Bft)
02.05.2013 00:44 14,0 C 12,3 C 69 % 1019,1 hPa 0,0 l/m 0 min 0 min 0,0 UV-I 0 W/m 0,0 km/h (0 Bft)
02.05.2013 00:46 14,0 C 12,3 C 69 % 1019,1 hPa 0,0 l/m 0 min 0 min 0,0 UV-I 0 W/m 5,1 km/h (1 Bft)
02.05.2013 00:48 14,0 C 12,3 C 69 % 1019,0 hPa 0,0 l/m 0 min 0 min 0,0 UV-I 0 W/m 0,0 km/h (0 Bft)
02.05.2013 00:50 13,9 C 12,3 C 69 % 1019,0 hPa 0,0 l/m 0 min 0 min 0,0 UV-I 0 W/m 2,6 km/h (1 Bft)
02.05.2013 00:52 13,9 C 12,3 C 70 % 1018,9 hPa 0,0 l/m 0 min 0 min 0,0 UV-I 0 W/m 0,0 km/h (0 Bft)
02.05.2013 00:54 13,9 C 12,3 C 70 % 1018,9 hPa 0,0 l/m 0 min 0 min 0,0 UV-I 0 W/m 0,0 km/h (0 Bft)
02.05.2013 00:56 13,8 C 12,3 C 70 % 1018,9 hPa 0,0 l/m 0 min 0 min 0,0 UV-I 0 W/m 0,0 km/h (0 Bft)
02.05.2013 00:58 13,8 C 12,3 C 70 % 1019,0 hPa 0,0 l/m 0 min 0 min 0,0 UV-I 0 W/m 5,1 km/h (1 Bft)
02.05.2013 01:00 13,8 C 12,3 C 70 % 1018,9 hPa 0,0 l/m 0 min 0 min 0,0 UV-I 0 W/m 0,0 km/h (0 Bft)
02.05.2013 01:02 13,8 C 12,3 C 70 % 1018,9 hPa 0,0 l/m 0 min 2 min 0,0 UV-I 0 W/m 7,7 km/h (2 Bft)
02.05.2013 01:04 13,7 C 12,3 C 70 % 1018,9 hPa 0,0 l/m 0 min 2 min 0,0 UV-I 0 W/m 0,0 km/h (0 Bft)
02.05.2013 01:06 13,7 C 11,8 C 71 % 1018,8 hPa 0,0 l/m 0 min 2 min 0,0 UV-I 0 W/m 0,0 km/h (0 Bft)
02.05.2013 01:08 13,7 C 11,8 C 71 % 1018,8 hPa 0,0 l/m 0 min 2 min 0,0 UV-I 0 W/m 0,0 km/h (0 Bft)
02.05.2013 01:10 13,7 C 11,8 C 72 % 1018,9 hPa 0,0 l/m 0 min 2 min 0,0 UV-I 0 W/m 0,0 km/h (0 Bft)
02.05.2013 01:12 13,7 C 11,8 C 72 % 1018,9 hPa 0,0 l/m 0 min 0 min 0,0 UV-I 0 W/m 2,6 km/h (1 Bft)
02.05.2013 01:14 13,7 C 11,8 C 73 % 1018,8 hPa 0,0 l/m 0 min 0 min 0,0 UV-I 0 W/m 0,0 km/h (0 Bft)
02.05.2013 01:16 13,6 C 11,8 C 73 % 1018,8 hPa 0,0 l/m 0 min 0 min 0,0 UV-I 0 W/m 2,6 km/h (1 Bft)
02.05.2013 01:18 13,6 C 11,8 C 73 % 1018,7 hPa 0,0 l/m 0 min 0 min 0,0 UV-I 0 W/m 2,6 km/h (1 Bft)
02.05.2013 01:20 13,6 C 11,8 C 73 % 1018,6 hPa 0,0 l/m 0 min 0 min 0,0 UV-I 0 W/m 0,0 km/h (0 Bft)
02.05.2013 01:22 13,5 C 11,8 C 73 % 1018,5 hPa 0,0 l/m 0 min 0 min 0,0 UV-I 0 W/m 2,6 km/h (1 Bft)
02.05.2013 01:24 13,4 C 11,8 C 73 % 1018,5 hPa 0,0 l/m 0 min 2 min 0,0 UV-I 0 W/m 0,0 km/h (0 Bft)
02.05.2013 01:26 13,4 C 11,2 C 74 % 1018,4 hPa 0,0 l/m 0 min 2 min 0,0 UV-I 0 W/m 2,6 km/h (1 Bft)
02.05.2013 01:28 13,4 C 10,7 C 75 % 1018,3 hPa 0,0 l/m 0 min 2 min 0,0 UV-I 0 W/m 0,0 km/h (0 Bft)
02.05.2013 01:30 13,3 C 10,7 C 75 % 1018,2 hPa 0,0 l/m 0 min 2 min 0,0 UV-I 0 W/m 0,0 km/h (0 Bft)
02.05.2013 01:32 13,3 C 10,1 C 76 % 1018,1 hPa 0,0 l/m 0 min 2 min 0,0 UV-I 0 W/m 2,6 km/h (1 Bft)
02.05.2013 01:34 13,2 C 10,1 C 76 % 1018,0 hPa 0,0 l/m 0 min 2 min 0,0 UV-I 0 W/m 2,6 km/h (1 Bft)
02.05.2013 01:36 13,1 C 10,1 C 77 % 1018,1 hPa 0,0 l/m 0 min 2 min 0,0 UV-I 0 W/m 2,6 km/h (1 Bft)
02.05.2013 01:38 13,1 C 10,1 C 77 % 1018,3 hPa 0,0 l/m 0 min 2 min 0,0 UV-I 0 W/m 0,0 km/h (0 Bft)
02.05.2013 01:40 13,0 C 10,1 C 78 % 1018,2 hPa 0,0 l/m 0 min 2 min 0,0 UV-I 0 W/m 0,0 km/h (0 Bft)
02.05.2013 01:42 12,9 C 9,6 C 78 % 1018,2 hPa 0,0 l/m 0 min 2 min 0,0 UV-I 0 W/m 2,6 km/h (1 Bft)
02.05.2013 01:44 12,9 C 9,6 C 78 % 1018,1 hPa 0,0 l/m 0 min 2 min 0,0 UV-I 0 W/m 5,1 km/h (1 Bft)
02.05.2013 01:46 12,8 C 9,6 C 78 % 1018,0 hPa 0,0 l/m 0 min 2 min 0,0 UV-I 0 W/m 7,7 km/h (2 Bft)
02.05.2013 01:48 12,8 C 9,6 C 78 % 1017,8 hPa 0,0 l/m 0 min 2 min 0,0 UV-I 0 W/m 5,1 km/h (1 Bft)
02.05.2013 01:50 12,7 C 9,6 C 78 % 1017,8 hPa 0,0 l/m 0 min 2 min 0,0 UV-I 0 W/m 7,7 km/h (2 Bft)
02.05.2013 01:52 12,7 C 9,6 C 78 % 1018,0 hPa 0,0 l/m 0 min 0 min 0,0 UV-I 0 W/m 7,7 km/h (2 Bft)
02.05.2013 01:54 12,6 C 9,6 C 78 % 1018,5 hPa 0,0 l/m 0 min 0 min 0,0 UV-I 0 W/m 0,0 km/h (0 Bft)
02.05.2013 01:56 12,6 C 9,6 C 78 % 1018,7 hPa 0,0 l/m 0 min 2 min 0,0 UV-I 0 W/m 5,1 km/h (1 Bft)
02.05.2013 01:58 12,6 C 9,6 C 79 % 1018,8 hPa 0,0 l/m 0 min 0 min 0,0 UV-I 0 W/m 15,4 km/h (3 Bft)
02.05.2013 02:00 12,6 C 9,6 C 78 % 1018,8 hPa 0,0 l/m 0 min 0 min 0,0 UV-I 0 W/m 0,0 km/h (0 Bft)
02.05.2013 02:02 12,6 C 9,6 C 78 % 1018,9 hPa 0,0 l/m 0 min 0 min 0,0 UV-I 0 W/m 0,0 km/h (0 Bft)
02.05.2013 02:04 12,6 C 9,6 C 78 % 1018,8 hPa 0,0 l/m 0 min 0 min 0,0 UV-I 0 W/m 2,6 km/h (1 Bft)
02.05.2013 02:06 12,6 C 9,6 C 79 % 1018,8 hPa 0,0 l/m 0 min 0 min 0,0 UV-I 0 W/m 5,1 km/h (1 Bft)
02.05.2013 02:08 12,6 C 9,6 C 79 % 1018,8 hPa 0,0 l/m 0 min 0 min 0,0 UV-I 0 W/m 2,6 km/h (1 Bft)
02.05.2013 02:10 12,5 C 9,6 C 79 % 1018,8 hPa 0,0 l/m 0 min 0 min 0,0 UV-I 0 W/m 0,0 km/h (0 Bft)
02.05.2013 02:12 12,5 C 10,1 C 79 % 1018,7 hPa 0,0 l/m 0 min 0 min 0,0 UV-I 0 W/m 0,0 km/h (0 Bft)
02.05.2013 02:14 12,5 C 10,1 C 79 % 1018,8 hPa 0,0 l/m 0 min 0 min 0,0 UV-I 0 W/m 0,0 km/h (0 Bft)
02.05.2013 02:16 12,4 C 10,1 C 79 % 1018,8 hPa 0,0 l/m 0 min 0 min 0,0 UV-I 0 W/m 0,0 km/h (0 Bft)
02.05.2013 02:18 12,4 C 10,1 C 79 % 1018,9 hPa 0,0 l/m 0 min 0 min 0,0 UV-I 0 W/m 0,0 km/h (0 Bft)
02.05.2013 02:20 12,4 C 9,6 C 79 % 1018,8 hPa 0,0 l/m 0 min 0 min 0,0 UV-I 0 W/m 0,0 km/h (0 Bft)
02.05.2013 02:22 12,4 C 9,6 C 79 % 1018,8 hPa 0,0 l/m 0 min 0 min 0,0 UV-I 0 W/m 0,0 km/h (0 Bft)
02.05.2013 02:24 12,4 C 9,6 C 79 % 1018,8 hPa 0,0 l/m 0 min 0 min 0,0 UV-I 0 W/m 0,0 km/h (0 Bft)
02.05.2013 02:26 12,4 C 9,6 C 79 % 1018,9 hPa 0,0 l/m 0 min 0 min 0,0 UV-I 0 W/m 0,0 km/h (0 Bft)
02.05.2013 02:28 12,3 C 9,6 C 79 % 1018,8 hPa 0,0 l/m 0 min 0 min 0,0 UV-I 0 W/m 0,0 km/h (0 Bft)
02.05.2013 02:30 12,3 C 9,6 C 80 % 1018,8 hPa 0,0 l/m 0 min 0 min 0,0 UV-I 0 W/m 0,0 km/h (0 Bft)
02.05.2013 02:32 12,3 C 9,6 C 80 % 1018,8 hPa 0,0 l/m 0 min 0 min 0,0 UV-I 0 W/m 0,0 km/h (0 Bft)
02.05.2013 02:34 12,3 C 9,6 C 80 % 1018,8 hPa 0,0 l/m 0 min 0 min 0,0 UV-I 0 W/m 0,0 km/h (0 Bft)
02.05.2013 02:36 12,3 C 9,6 C 80 % 1018,7 hPa 0,0 l/m 0 min 0 min 0,0 UV-I 0 W/m 0,0 km/h (0 Bft)
02.05.2013 02:38 12,2 C 9,6 C 80 % 1018,7 hPa 0,0 l/m 0 min 0 min 0,0 UV-I 0 W/m 0,0 km/h (0 Bft)
02.05.2013 02:40 12,2 C 9,6 C 80 % 1018,7 hPa 0,0 l/m 0 min 0 min 0,0 UV-I 0 W/m 0,0 km/h (0 Bft)
02.05.2013 02:42 12,2 C 9,6 C 80 % 1018,7 hPa 0,0 l/m 0 min 0 min 0,0 UV-I 0 W/m 0,0 km/h (0 Bft)
02.05.2013 02:44 12,1 C 9,6 C 80 % 1018,7 hPa 0,0 l/m 0 min 0 min 0,0 UV-I 0 W/m 0,0 km/h (0 Bft)
02.05.2013 02:46 12,1 C 9,6 C 80 % 1018,7 hPa 0,0 l/m 0 min 0 min 0,0 UV-I 0 W/m 0,0 km/h (0 Bft)
02.05.2013 02:48 12,1 C 9,6 C 81 % 1018,8 hPa 0,0 l/m 0 min 0 min 0,0 UV-I 0 W/m 0,0 km/h (0 Bft)
02.05.2013 02:50 12,1 C 9,6 C 81 % 1018,7 hPa 0,0 l/m 0 min 0 min 0,0 UV-I 0 W/m 0,0 km/h (0 Bft)
02.05.2013 02:52 12,0 C 10,1 C 81 % 1018,7 hPa 0,0 l/m 0 min 0 min 0,0 UV-I 0 W/m 0,0 km/h (0 Bft)
02.05.2013 02:54 12,0 C 10,1 C 81 % 1018,8 hPa 0,0 l/m 0 min 0 min 0,0 UV-I 0 W/m 0,0 km/h (0 Bft)
02.05.2013 02:56 11,9 C 10,1 C 81 % 1018,7 hPa 0,0 l/m 0 min 0 min 0,0 UV-I 0 W/m 0,0 km/h (0 Bft)
02.05.2013 02:58 11,9 C 10,1 C 81 % 1018,8 hPa 0,0 l/m 0 min 0 min 0,0 UV-I 0 W/m 0,0 km/h (0 Bft)
02.05.2013 03:00 11,9 C 10,1 C 81 % 1018,8 hPa 0,0 l/m 0 min 0 min 0,0 UV-I 0 W/m 0,0 km/h (0 Bft)
02.05.2013 03:02 11,9 C 10,1 C 81 % 1018,8 hPa 0,0 l/m 0 min 0 min 0,0 UV-I 0 W/m 0,0 km/h (0 Bft)
02.05.2013 03:06 11,9 C 10,1 C 82 % 1018,8 hPa 0,0 l/m 0 min 0 min 0,0 UV-I 0 W/m 0,0 km/h (0 Bft)
02.05.2013 03:08 11,8 C 10,1 C 82 % 1018,8 hPa 0,0 l/m 0 min 0 min 0,0 UV-I 0 W/m 0,0 km/h (0 Bft)
02.05.2013 03:10 11,8 C 10,1 C 82 % 1018,8 hPa 0,0 l/m 0 min 0 min 0,0 UV-I 0 W/m 0,0 km/h (0 Bft)
02.05.2013 03:12 11,8 C 10,7 C 82 % 1018,8 hPa 0,0 l/m 0 min 0 min 0,0 UV-I 0 W/m 0,0 km/h (0 Bft)
02.05.2013 03:14 11,8 C 10,7 C 82 % 1018,8 hPa 0,0 l/m 0 min 0 min 0,0 UV-I 0 W/m 0,0 km/h (0 Bft)
02.05.2013 03:16 11,8 C 10,7 C 82 % 1018,8 hPa 0,0 l/m 0 min 0 min 0,0 UV-I 0 W/m 0,0 km/h (0 Bft)
02.05.2013 03:18 11,8 C 10,7 C 82 % 1018,8 hPa 0,0 l/m 0 min 0 min 0,0 UV-I 0 W/m 0,0 km/h (0 Bft)
02.05.2013 03:20 11,8 C 10,7 C 82 % 1018,8 hPa 0,0 l/m 0 min 0 min 0,0 UV-I 0 W/m 0,0 km/h (0 Bft)
02.05.2013 03:22 11,8 C 10,7 C 82 % 1018,7 hPa 0,0 l/m 0 min 0 min 0,0 UV-I 0 W/m 0,0 km/h (0 Bft)
02.05.2013 03:24 11,8 C 10,7 C 82 % 1018,8 hPa 0,0 l/m 0 min 0 min 0,0 UV-I 0 W/m 0,0 km/h (0 Bft)
02.05.2013 03:26 11,8 C 10,7 C 82 % 1018,8 hPa 0,0 l/m 0 min 0 min 0,0 UV-I 0 W/m 0,0 km/h (0 Bft)
02.05.2013 03:28 11,8 C 10,7 C 82 % 1018,8 hPa 0,0 l/m 0 min 0 min 0,0 UV-I 0 W/m 0,0 km/h (0 Bft)
02.05.2013 03:30 11,8 C 10,7 C 83 % 1018,7 hPa 0,0 l/m 0 min 0 min 0,0 UV-I 0 W/m 0,0 km/h (0 Bft)
02.05.2013 03:32 11,7 C 10,7 C 83 % 1018,7 hPa 0,0 l/m 0 min 0 min 0,0 UV-I 0 W/m 0,0 km/h (0 Bft)
02.05.2013 03:34 11,7 C 10,7 C 83 % 1018,7 hPa 0,0 l/m 0 min 0 min 0,0 UV-I 0 W/m 0,0 km/h (0 Bft)
02.05.2013 03:36 11,7 C 10,7 C 83 % 1018,6 hPa 0,0 l/m 0 min 0 min 0,0 UV-I 0 W/m 0,0 km/h (0 Bft)
02.05.2013 03:38 11,7 C 10,7 C 83 % 1018,6 hPa 0,0 l/m 0 min 0 min 0,0 UV-I 0 W/m 0,0 km/h (0 Bft)
02.05.2013 03:40 11,7 C 10,7 C 83 % 1018,6 hPa 0,0 l/m 0 min 0 min 0,0 UV-I 0 W/m 0,0 km/h (0 Bft)
02.05.2013 03:42 11,7 C 10,7 C 83 % 1018,5 hPa 0,0 l/m 0 min 0 min 0,0 UV-I 0 W/m 0,0 km/h (0 Bft)
02.05.2013 03:44 11,7 C 10,7 C 83 % 1018,6 hPa 0,0 l/m 0 min 0 min 0,0 UV-I 0 W/m 0,0 km/h (0 Bft)
02.05.2013 03:46 11,7 C 10,7 C 83 % 1018,6 hPa 0,0 l/m 0 min 0 min 0,0 UV-I 0 W/m 0,0 km/h (0 Bft)
02.05.2013 03:48 11,7 C 10,7 C 83 % 1018,5 hPa 0,0 l/m 0 min 0 min 0,0 UV-I 0 W/m 0,0 km/h (0 Bft)
02.05.2013 03:50 11,7 C 10,7 C 83 % 1018,5 hPa 0,0 l/m 0 min 0 min 0,0 UV-I 0 W/m 2,6 km/h (1 Bft)
02.05.2013 03:52 11,7 C 10,7 C 82 % 1018,6 hPa 0,0 l/m 0 min 0 min 0,0 UV-I 0 W/m 0,0 km/h (0 Bft)
02.05.2013 03:54 11,7 C 10,7 C 82 % 1018,6 hPa 0,0 l/m 0 min 0 min 0,0 UV-I 0 W/m 0,0 km/h (0 Bft)
02.05.2013 03:56 11,7 C 10,7 C 82 % 1018,6 hPa 0,0 l/m 0 min 0 min 0,0 UV-I 0 W/m 0,0 km/h (0 Bft)
02.05.2013 03:58 11,7 C 10,7 C 82 % 1018,6 hPa 0,0 l/m 0 min 0 min 0,0 UV-I 0 W/m 0,0 km/h (0 Bft)
02.05.2013 04:00 11,7 C 10,7 C 82 % 1018,7 hPa 0,0 l/m 0 min 0 min 0,0 UV-I 0 W/m 0,0 km/h (0 Bft)
02.05.2013 04:02 11,7 C 10,7 C 82 % 1018,5 hPa 0,0 l/m 0 min 0 min 0,0 UV-I 0 W/m 0,0 km/h (0 Bft)
02.05.2013 04:04 11,8 C 10,7 C 82 % 1018,5 hPa 0,0 l/m 0 min 0 min 0,0 UV-I 0 W/m 0,0 km/h (0 Bft)
02.05.2013 04:06 11,8 C 10,7 C 82 % 1018,5 hPa 0,0 l/m 0 min 0 min 0,0 UV-I 0 W/m 0,0 km/h (0 Bft)
02.05.2013 04:08 11,8 C 10,7 C 82 % 1018,5 hPa 0,0 l/m 0 min 0 min 0,0 UV-I 0 W/m 0,0 km/h (0 Bft)
02.05.2013 04:10 11,8 C 10,7 C 82 % 1018,5 hPa 0,0 l/m 0 min 0 min 0,0 UV-I 0 W/m 0,0 km/h (0 Bft)
02.05.2013 04:12 11,8 C 10,7 C 82 % 1018,4 hPa 0,0 l/m 0 min 0 min 0,0 UV-I 0 W/m 0,0 km/h (0 Bft)
02.05.2013 04:14 11,8 C 10,7 C 82 % 1018,4 hPa 0,0 l/m 0 min 0 min 0,0 UV-I 0 W/m 0,0 km/h (0 Bft)
02.05.2013 04:16 11,8 C 10,7 C 82 % 1018,3 hPa 0,0 l/m 0 min 0 min 0,0 UV-I 0 W/m 0,0 km/h (0 Bft)
02.05.2013 04:18 11,8 C 10,7 C 82 % 1018,3 hPa 0,0 l/m 0 min 0 min 0,0 UV-I 0 W/m 0,0 km/h (0 Bft)
02.05.2013 04:20 11,8 C 10,7 C 82 % 1018,3 hPa 0,0 l/m 0 min 0 min 0,0 UV-I 0 W/m 0,0 km/h (0 Bft)
02.05.2013 04:22 11,8 C 10,7 C 82 % 1018,3 hPa 0,0 l/m 0 min 0 min 0,0 UV-I 0 W/m 0,0 km/h (0 Bft)
02.05.2013 04:24 11,8 C 10,7 C 82 % 1018,3 hPa 0,0 l/m 0 min 0 min 0,0 UV-I 0 W/m 0,0 km/h (0 Bft)
02.05.2013 04:26 11,8 C 10,7 C 82 % 1018,4 hPa 0,0 l/m 0 min 0 min 0,0 UV-I 0 W/m 0,0 km/h (0 Bft)
02.05.2013 04:28 11,8 C 10,7 C 82 % 1018,4 hPa 0,0 l/m 0 min 0 min 0,0 UV-I 0 W/m 5,1 km/h (1 Bft)
02.05.2013 04:30 11,8 C 10,7 C 82 % 1018,4 hPa 0,0 l/m 0 min 0 min 0,0 UV-I 0 W/m 2,6 km/h (1 Bft)
02.05.2013 04:32 11,8 C 10,7 C 82 % 1018,4 hPa 0,0 l/m 0 min 0 min 0,0 UV-I 0 W/m 0,0 km/h (0 Bft)
02.05.2013 04:34 11,8 C 10,7 C 82 % 1018,4 hPa 0,0 l/m 0 min 0 min 0,0 UV-I 0 W/m 0,0 km/h (0 Bft)
02.05.2013 04:36 11,8 C 10,7 C 82 % 1018,4 hPa 0,0 l/m 0 min 0 min 0,0 UV-I 0 W/m 7,7 km/h (2 Bft)
02.05.2013 04:38 11,8 C 10,7 C 82 % 1018,4 hPa 0,0 l/m 0 min 0 min 0,0 UV-I 0 W/m 2,6 km/h (1 Bft)
02.05.2013 04:40 11,8 C 10,7 C 81 % 1018,4 hPa 0,0 l/m 0 min 0 min 0,0 UV-I 0 W/m 0,0 km/h (0 Bft)
02.05.2013 04:42 11,8 C 10,7 C 81 % 1018,4 hPa 0,0 l/m 0 min 0 min 0,0 UV-I 0 W/m 0,0 km/h (0 Bft)
02.05.2013 04:44 11,8 C 10,7 C 81 % 1018,4 hPa 0,0 l/m 0 min 0 min 0,0 UV-I 0 W/m 0,0 km/h (0 Bft)
02.05.2013 04:46 11,8 C 10,7 C 81 % 1018,4 hPa 0,0 l/m 0 min 0 min 0,0 UV-I 0 W/m 0,0 km/h (0 Bft)
02.05.2013 04:48 11,8 C 10,7 C 81 % 1018,4 hPa 0,0 l/m 0 min 0 min 0,0 UV-I 0 W/m 0,0 km/h (0 Bft)
02.05.2013 04:50 11,8 C 10,7 C 81 % 1018,5 hPa 0,0 l/m 0 min 0 min 0,0 UV-I 0 W/m 0,0 km/h (0 Bft)
02.05.2013 04:52 11,8 C 10,7 C 81 % 1018,4 hPa 0,0 l/m 0 min 0 min 0,0 UV-I 0 W/m 0,0 km/h (0 Bft)
02.05.2013 04:54 11,8 C 10,7 C 81 % 1018,4 hPa 0,0 l/m 0 min 0 min 0,0 UV-I 0 W/m 0,0 km/h (0 Bft)
02.05.2013 04:56 11,8 C 10,7 C 81 % 1018,5 hPa 0,0 l/m 0 min 0 min 0,0 UV-I 0 W/m 0,0 km/h (0 Bft)
02.05.2013 04:58 11,8 C 10,7 C 81 % 1018,4 hPa 0,0 l/m 0 min 0 min 0,0 UV-I 0 W/m 0,0 km/h (0 Bft)
02.05.2013 05:00 11,8 C 10,7 C 81 % 1018,4 hPa 0,0 l/m 0 min 0 min 0,0 UV-I 0 W/m 0,0 km/h (0 Bft)
02.05.2013 05:02 11,8 C 10,7 C 81 % 1018,4 hPa 0,0 l/m 0 min 0 min 0,0 UV-I 0 W/m 0,0 km/h (0 Bft)
02.05.2013 05:04 11,8 C 10,7 C 81 % 1018,4 hPa 0,0 l/m 0 min 0 min 0,0 UV-I 0 W/m 0,0 km/h (0 Bft)
02.05.2013 05:06 11,8 C 10,7 C 81 % 1018,5 hPa 0,0 l/m 0 min 0 min 0,0 UV-I 0 W/m 0,0 km/h (0 Bft)
02.05.2013 05:08 11,8 C 10,7 C 81 % 1018,5 hPa 0,0 l/m 0 min 0 min 0,0 UV-I 0 W/m 0,0 km/h (0 Bft)
02.05.2013 05:10 11,8 C 10,7 C 81 % 1018,4 hPa 0,0 l/m 0 min 0 min 0,0 UV-I 0 W/m 0,0 km/h (0 Bft)
02.05.2013 05:12 11,8 C 10,7 C 81 % 1018,5 hPa 0,0 l/m 0 min 0 min 0,0 UV-I 0 W/m 2,6 km/h (1 Bft)
02.05.2013 05:14 11,7 C 10,7 C 81 % 1018,4 hPa 0,0 l/m 0 min 0 min 0,0 UV-I 0 W/m 0,0 km/h (0 Bft)
02.05.2013 05:16 11,7 C 10,7 C 81 % 1018,4 hPa 0,0 l/m 0 min 0 min 0,0 UV-I 0 W/m 0,0 km/h (0 Bft)
02.05.2013 05:18 11,7 C 10,7 C 81 % 1018,4 hPa 0,0 l/m 0 min 0 min 0,0 UV-I 0 W/m 0,0 km/h (0 Bft)
02.05.2013 05:20 11,7 C 10,7 C 81 % 1018,3 hPa 0,0 l/m 0 min 0 min 0,0 UV-I 0 W/m 0,0 km/h (0 Bft)
02.05.2013 05:22 11,7 C 10,7 C 81 % 1018,4 hPa 0,0 l/m 0 min 0 min 0,0 UV-I 0 W/m 0,0 km/h (0 Bft)
02.05.2013 05:24 11,7 C 10,7 C 81 % 1018,3 hPa 0,0 l/m 0 min 0 min 0,0 UV-I 0 W/m 0,0 km/h (0 Bft)
02.05.2013 05:26 11,7 C 10,7 C 81 % 1018,4 hPa 0,0 l/m 0 min 0 min 0,0 UV-I 0 W/m 0,0 km/h (0 Bft)
02.05.2013 05:28 11,7 C 10,7 C 81 % 1018,3 hPa 0,0 l/m 0 min 0 min 0,0 UV-I 0 W/m 0,0 km/h (0 Bft)
02.05.2013 05:30 11,7 C 10,7 C 82 % 1018,2 hPa 0,0 l/m 0 min 0 min 0,0 UV-I 0 W/m 0,0 km/h (0 Bft)
02.05.2013 05:32 11,7 C 10,7 C 82 % 1018,2 hPa 0,0 l/m 0 min 0 min 0,0 UV-I 0 W/m 0,0 km/h (0 Bft)
02.05.2013 05:34 11,7 C 10,7 C 82 % 1018,2 hPa 0,0 l/m 0 min 0 min 0,0 UV-I 0 W/m 0,0 km/h (0 Bft)
02.05.2013 05:36 11,7 C 10,7 C 82 % 1018,2 hPa 0,0 l/m 0 min 0 min 0,0 UV-I 0 W/m 0,0 km/h (0 Bft)
02.05.2013 05:38 11,7 C 10,7 C 81 % 1018,3 hPa 0,0 l/m 0 min 0 min 0,0 UV-I 0 W/m 0,0 km/h (0 Bft)
02.05.2013 05:40 11,7 C 10,7 C 81 % 1018,3 hPa 0,0 l/m 0 min 0 min 0,0 UV-I 0 W/m 0,0 km/h (0 Bft)
02.05.2013 05:42 11,7 C 10,7 C 81 % 1018,3 hPa 0,0 l/m 0 min 0 min 0,0 UV-I 0 W/m 0,0 km/h (0 Bft)
02.05.2013 05:44 11,7 C 10,7 C 82 % 1018,3 hPa 0,0 l/m 0 min 0 min 0,0 UV-I 0 W/m 0,0 km/h (0 Bft)
02.05.2013 05:46 11,6 C 10,7 C 82 % 1018,3 hPa 0,0 l/m 0 min 0 min 0,0 UV-I 0 W/m 0,0 km/h (0 Bft)
02.05.2013 05:48 11,6 C 10,7 C 82 % 1018,3 hPa 0,0 l/m 0 min 0 min 0,0 UV-I 0 W/m 2,6 km/h (1 Bft)
02.05.2013 05:50 11,6 C 10,1 C 82 % 1018,2 hPa 0,0 l/m 0 min 2 min 0,0 UV-I 0 W/m 0,0 km/h (0 Bft)
02.05.2013 05:52 11,6 C 10,1 C 82 % 1018,3 hPa 0,0 l/m 0 min 2 min 0,0 UV-I 0 W/m 0,0 km/h (0 Bft)
02.05.2013 05:54 11,6 C 9,6 C 82 % 1018,2 hPa 0,0 l/m 0 min 2 min 0,0 UV-I 0 W/m 0,0 km/h (0 Bft)
02.05.2013 05:56 11,6 C 9,6 C 82 % 1018,3 hPa 0,0 l/m 0 min 2 min 0,0 UV-I 0 W/m 0,0 km/h (0 Bft)
02.05.2013 05:58 11,6 C 9,6 C 83 % 1018,2 hPa 0,0 l/m 0 min 0 min 0,0 UV-I 0 W/m 0,0 km/h (0 Bft)
02.05.2013 06:00 11,6 C 9,6 C 83 % 1018,2 hPa 0,0 l/m 0 min 0 min 0,0 UV-I 0 W/m 0,0 km/h (0 Bft)
02.05.2013 06:02 11,6 C 9,0 C 83 % 1018,2 hPa 0,0 l/m 0 min 0 min 0,0 UV-I 0 W/m 0,0 km/h (0 Bft)
02.05.2013 06:04 11,6 C 9,0 C 83 % 1018,2 hPa 0,0 l/m 0 min 0 min 0,0 UV-I 0 W/m 0,0 km/h (0 Bft)
02.05.2013 06:06 11,6 C 9,0 C 83 % 1018,2 hPa 0,0 l/m 0 min 2 min 0,0 UV-I 0 W/m 0,0 km/h (0 Bft)
02.05.2013 06:08 11,6 C 9,6 C 84 % 1018,2 hPa 0,0 l/m 0 min 2 min 0,0 UV-I 0 W/m 0,0 km/h (0 Bft)
02.05.2013 06:10 11,6 C 9,0 C 84 % 1018,2 hPa 0,0 l/m 0 min 2 min 0,0 UV-I 0 W/m 0,0 km/h (0 Bft)
02.05.2013 06:12 11,5 C 9,0 C 84 % 1018,2 hPa 0,0 l/m 0 min 0 min 0,0 UV-I 0 W/m 0,0 km/h (0 Bft)
02.05.2013 06:14 11,5 C 9,6 C 84 % 1018,3 hPa 0,0 l/m 0 min 0 min 0,0 UV-I 0 W/m 0,0 km/h (0 Bft)
02.05.2013 06:16 11,5 C 9,6 C 84 % 1018,3 hPa 0,0 l/m 0 min 0 min 0,0 UV-I 0 W/m 0,0 km/h (0 Bft)
02.05.2013 06:18 11,5 C 9,6 C 84 % 1018,3 hPa 0,0 l/m 0 min 0 min 0,0 UV-I 0 W/m 0,0 km/h (0 Bft)
02.05.2013 06:20 11,4 C 9,0 C 84 % 1018,3 hPa 0,0 l/m 0 min 0 min 0,0 UV-I 5 W/m 0,0 km/h (0 Bft)
02.05.2013 06:22 11,4 C 9,6 C 84 % 1018,4 hPa 0,0 l/m 0 min 0 min 0,0 UV-I 5 W/m 0,0 km/h (0 Bft)
02.05.2013 06:24 11,4 C 9,6 C 84 % 1018,3 hPa 0,0 l/m 0 min 0 min 0,0 UV-I 7 W/m 0,0 km/h (0 Bft)
02.05.2013 06:26 11,4 C 9,6 C 84 % 1018,4 hPa 0,0 l/m 0 min 0 min 0,0 UV-I 9 W/m 0,0 km/h (0 Bft)
02.05.2013 06:28 11,4 C 9,6 C 84 % 1018,4 hPa 0,0 l/m 0 min 0 min 0,0 UV-I 9 W/m 0,0 km/h (0 Bft)
02.05.2013 06:30 11,4 C 9,6 C 84 % 1018,4 hPa 0,0 l/m 0 min 0 min 0,0 UV-I 9 W/m 0,0 km/h (0 Bft)
02.05.2013 06:32 11,4 C 9,6 C 84 % 1018,5 hPa 0,0 l/m 0 min 0 min 0,0 UV-I 11 W/m 0,0 km/h (0 Bft)
02.05.2013 06:34 11,4 C 9,6 C 84 % 1018,4 hPa 0,0 l/m 0 min 0 min 0,0 UV-I 11 W/m 0,0 km/h (0 Bft)
02.05.2013 06:36 11,4 C 9,6 C 84 % 1018,5 hPa 0,0 l/m 0 min 0 min 0,0 UV-I 12 W/m 0,0 km/h (0 Bft)
02.05.2013 06:38 11,4 C 9,6 C 84 % 1018,5 hPa 0,0 l/m 0 min 0 min 0,0 UV-I 14 W/m 0,0 km/h (0 Bft)
02.05.2013 06:40 11,4 C 9,6 C 84 % 1018,6 hPa 0,0 l/m 0 min 0 min 0,0 UV-I 14 W/m 0,0 km/h (0 Bft)
02.05.2013 06:42 11,3 C 9,6 C 84 % 1018,5 hPa 0,0 l/m 0 min 0 min 0,0 UV-I 16 W/m 0,0 km/h (0 Bft)
02.05.2013 06:44 11,3 C 9,6 C 84 % 1018,6 hPa 0,0 l/m 0 min 0 min 0,0 UV-I 18 W/m 0,0 km/h (0 Bft)
02.05.2013 06:46 11,3 C 9,6 C 84 % 1018,6 hPa 0,0 l/m 0 min 0 min 0,0 UV-I 18 W/m 0,0 km/h (0 Bft)
02.05.2013 06:48 11,3 C 9,6 C 84 % 1018,6 hPa 0,0 l/m 0 min 0 min 0,0 UV-I 19 W/m 0,0 km/h (0 Bft)
02.05.2013 06:50 11,3 C 9,6 C 84 % 1018,6 hPa 0,0 l/m 0 min 0 min 0,0 UV-I 19 W/m 0,0 km/h (0 Bft)
02.05.2013 06:52 11,3 C 9,6 C 84 % 1018,6 hPa 0,0 l/m 0 min 0 min 0,0 UV-I 21 W/m 0,0 km/h (0 Bft)
02.05.2013 06:54 11,3 C 9,6 C 84 % 1018,6 hPa 0,0 l/m 0 min 0 min 0,0 UV-I 21 W/m 0,0 km/h (0 Bft)
02.05.2013 06:56 11,3 C 10,1 C 84 % 1018,6 hPa 0,0 l/m 0 min 0 min 0,0 UV-I 23 W/m 0,0 km/h (0 Bft)
02.05.2013 06:58 11,3 C 10,1 C 84 % 1018,6 hPa 0,0 l/m 0 min 0 min 0,0 UV-I 25 W/m 0,0 km/h (0 Bft)
02.05.2013 07:00 11,3 C 10,1 C 84 % 1018,6 hPa 0,0 l/m 0 min 0 min 0,0 UV-I 26 W/m 0,0 km/h (0 Bft)
02.05.2013 07:02 11,3 C 10,1 C 84 % 1018,6 hPa 0,0 l/m 0 min 0 min 0,0 UV-I 26 W/m 0,0 km/h (0 Bft)
02.05.2013 07:04 11,3 C 10,1 C 84 % 1018,6 hPa 0,0 l/m 0 min 0 min 0,0 UV-I 26 W/m 0,0 km/h (0 Bft)
02.05.2013 07:06 11,3 C 10,1 C 84 % 1018,6 hPa 0,0 l/m 0 min 0 min 0,0 UV-I 28 W/m 0,0 km/h (0 Bft)
02.05.2013 07:08 11,3 C 10,1 C 84 % 1018,6 hPa 0,0 l/m 0 min 0 min 0,0 UV-I 30 W/m 0,0 km/h (0 Bft)
02.05.2013 07:10 11,3 C 10,1 C 84 % 1018,6 hPa 0,0 l/m 0 min 0 min 0,0 UV-I 32 W/m 0,0 km/h (0 Bft)
02.05.2013 07:12 11,3 C 10,7 C 85 % 1018,6 hPa 0,0 l/m 0 min 0 min 0,0 UV-I 33 W/m 0,0 km/h (0 Bft)
02.05.2013 07:14 11,3 C 10,7 C 85 % 1018,7 hPa 0,0 l/m 0 min 0 min 0,0 UV-I 35 W/m 0,0 km/h (0 Bft)
02.05.2013 07:16 11,3 C 10,7 C 85 % 1018,7 hPa 0,0 l/m 0 min 0 min 0,0 UV-I 35 W/m 0,0 km/h (0 Bft)
02.05.2013 07:18 11,4 C 10,7 C 85 % 1018,7 hPa 0,0 l/m 0 min 0 min 0,0 UV-I 37 W/m 0,0 km/h (0 Bft)
02.05.2013 07:20 11,4 C 10,7 C 85 % 1018,7 hPa 0,0 l/m 0 min 0 min 0,0 UV-I 40 W/m 0,0 km/h (0 Bft)
02.05.2013 07:22 11,4 C 10,7 C 85 % 1018,7 hPa 0,0 l/m 0 min 0 min 0,0 UV-I 40 W/m 0,0 km/h (0 Bft)
02.05.2013 07:24 11,4 C 10,7 C 84 % 1018,7 hPa 0,0 l/m 0 min 0 min 0,0 UV-I 40 W/m 0,0 km/h (0 Bft)
02.05.2013 07:26 11,4 C 10,7 C 85 % 1018,7 hPa 0,0 l/m 0 min 0 min 0,0 UV-I 44 W/m 0,0 km/h (0 Bft)
02.05.2013 07:28 11,4 C 10,7 C 85 % 1018,7 hPa 0,0 l/m 0 min 0 min 0,0 UV-I 47 W/m 0,0 km/h (0 Bft)
02.05.2013 07:30 11,5 C 10,7 C 85 % 1018,7 hPa 0,0 l/m 0 min 0 min 0,0 UV-I 51 W/m 0,0 km/h (0 Bft)
02.05.2013 07:32 11,5 C 11,2 C 85 % 1018,7 hPa 0,0 l/m 0 min 0 min 0,0 UV-I 58 W/m 2,6 km/h (1 Bft)
02.05.2013 07:34 11,5 C 11,2 C 85 % 1018,7 hPa 0,0 l/m 0 min 0 min 0,0 UV-I 58 W/m 0,0 km/h (0 Bft)
02.05.2013 07:36 11,5 C 11,2 C 84 % 1018,7 hPa 0,0 l/m 0 min 0 min 0,0 UV-I 56 W/m 0,0 km/h (0 Bft)
02.05.2013 07:38 11,6 C 11,2 C 84 % 1018,7 hPa 0,0 l/m 0 min 0 min 0,0 UV-I 54 W/m 0,0 km/h (0 Bft)
02.05.2013 07:40 11,6 C 11,2 C 84 % 1018,7 hPa 0,0 l/m 0 min 0 min 0,0 UV-I 54 W/m 0,0 km/h (0 Bft)
02.05.2013 07:42 11,6 C 11,2 C 84 % 1018,7 hPa 0,0 l/m 0 min 0 min 0,0 UV-I 53 W/m 10,3 km/h (2 Bft)
02.05.2013 07:44 11,6 C 11,2 C 84 % 1018,7 hPa 0,0 l/m 0 min 0 min 0,0 UV-I 49 W/m 5,1 km/h (1 Bft)
02.05.2013 07:46 11,6 C 11,2 C 84 % 1018,7 hPa 0,0 l/m 0 min 0 min 0,0 UV-I 49 W/m 5,1 km/h (1 Bft)
02.05.2013 07:48 11,7 C 11,2 C 83 % 1018,8 hPa 0,0 l/m 0 min 0 min 0,0 UV-I 49 W/m 2,6 km/h (1 Bft)
02.05.2013 07:50 11,7 C 11,2 C 83 % 1018,8 hPa 0,0 l/m 0 min 0 min 0,0 UV-I 49 W/m 0,0 km/h (0 Bft)
02.05.2013 07:52 11,7 C 11,2 C 83 % 1018,8 hPa 0,0 l/m 0 min 0 min 0,0 UV-I 51 W/m 5,1 km/h (1 Bft)
02.05.2013 07:54 11,7 C 11,2 C 83 % 1018,9 hPa 0,0 l/m 0 min 0 min 0,0 UV-I 58 W/m 2,6 km/h (1 Bft)
02.05.2013 07:56 11,7 C 11,2 C 83 % 1018,8 hPa 0,0 l/m 0 min 0 min 0,0 UV-I 62 W/m 2,6 km/h (1 Bft)
02.05.2013 07:58 11,7 C 11,2 C 83 % 1018,8 hPa 0,0 l/m 0 min 0 min 0,0 UV-I 63 W/m 0,0 km/h (0 Bft)
02.05.2013 08:00 11,7 C 11,2 C 83 % 1018,8 hPa 0,0 l/m 0 min 0 min 0,0 UV-I 65 W/m 7,7 km/h (2 Bft)
02.05.2013 08:02 11,8 C 11,2 C 83 % 1018,8 hPa 0,0 l/m 0 min 0 min 0,0 UV-I 65 W/m 0,0 km/h (0 Bft)
02.05.2013 08:04 11,8 C 11,2 C 82 % 1018,8 hPa 0,0 l/m 0 min 0 min 0,0 UV-I 69 W/m 5,1 km/h (1 Bft)
02.05.2013 08:06 11,8 C 11,2 C 82 % 1018,8 hPa 0,0 l/m 0 min 0 min 0,0 UV-I 76 W/m 2,6 km/h (1 Bft)
02.05.2013 08:08 11,8 C 11,2 C 82 % 1018,8 hPa 0,0 l/m 0 min 0 min 0,0 UV-I 83 W/m 5,1 km/h (1 Bft)
02.05.2013 08:10 11,8 C 11,2 C 82 % 1018,8 hPa 0,0 l/m 0 min 0 min 0,0 UV-I 91 W/m 0,0 km/h (0 Bft)
02.05.2013 08:12 11,8 C 11,2 C 83 % 1018,8 hPa 0,0 l/m 0 min 0 min 0,0 UV-I 95 W/m 0,0 km/h (0 Bft)
02.05.2013 08:14 11,9 C 11,2 C 83 % 1018,8 hPa 0,0 l/m 0 min 0 min 0,0 UV-I 91 W/m 5,1 km/h (1 Bft)
02.05.2013 08:16 11,9 C 11,8 C 83 % 1018,8 hPa 0,0 l/m 0 min 0 min 0,0 UV-I 84 W/m 7,7 km/h (2 Bft)
02.05.2013 08:18 11,9 C 11,8 C 83 % 1018,8 hPa 0,0 l/m 0 min 0 min 0,0 UV-I 67 W/m 2,6 km/h (1 Bft)
02.05.2013 08:20 11,9 C 11,8 C 83 % 1018,9 hPa 0,0 l/m 0 min 0 min 0,0 UV-I 62 W/m 0,0 km/h (0 Bft)
02.05.2013 08:22 12,0 C 11,8 C 82 % 1019,0 hPa 0,0 l/m 0 min 0 min 0,0 UV-I 54 W/m 0,0 km/h (0 Bft)
02.05.2013 08:24 12,0 C 11,8 C 82 % 1018,9 hPa 0,0 l/m 0 min 0 min 0,0 UV-I 53 W/m 2,6 km/h (1 Bft)
02.05.2013 08:26 12,1 C 11,8 C 82 % 1018,9 hPa 0,0 l/m 0 min 0 min 0,0 UV-I 54 W/m 0,0 km/h (0 Bft)
02.05.2013 08:28 12,1 C 11,8 C 82 % 1018,9 hPa 0,0 l/m 0 min 0 min 0,0 UV-I 58 W/m 0,0 km/h (0 Bft)
02.05.2013 08:30 12,1 C 11,8 C 82 % 1018,9 hPa 0,0 l/m 0 min 0 min 0,0 UV-I 62 W/m 0,0 km/h (0 Bft)
02.05.2013 08:32 12,1 C 11,8 C 82 % 1018,9 hPa 0,0 l/m 0 min 0 min 0,0 UV-I 62 W/m 2,6 km/h (1 Bft)
02.05.2013 08:34 12,1 C 11,8 C 82 % 1018,9 hPa 0,0 l/m 0 min 0 min 0,0 UV-I 60 W/m 0,0 km/h (0 Bft)
02.05.2013 08:36 12,1 C 11,8 C 82 % 1018,9 hPa 0,0 l/m 0 min 0 min 0,0 UV-I 62 W/m 0,0 km/h (0 Bft)
02.05.2013 08:38 12,2 C 11,8 C 82 % 1018,9 hPa 0,0 l/m 0 min 0 min 0,0 UV-I 65 W/m 2,6 km/h (1 Bft)
02.05.2013 08:40 12,2 C 11,8 C 82 % 1018,9 hPa 0,0 l/m 0 min 0 min 0,0 UV-I 72 W/m 0,0 km/h (0 Bft)
02.05.2013 08:42 12,2 C 11,8 C 82 % 1018,9 hPa 0,0 l/m 0 min 0 min 0,0 UV-I 86 W/m 2,6 km/h (1 Bft)
02.05.2013 08:44 12,2 C 11,8 C 82 % 1018,9 hPa 0,0 l/m 0 min 0 min 0,0 UV-I 93 W/m 10,3 km/h (2 Bft)
02.05.2013 08:46 12,2 C 11,8 C 82 % 1018,9 hPa 0,0 l/m 0 min 0 min 0,0 UV-I 97 W/m 5,1 km/h (1 Bft)
02.05.2013 08:48 12,3 C 11,8 C 82 % 1018,9 hPa 0,0 l/m 0 min 0 min 0,0 UV-I 102 W/m 0,0 km/h (0 Bft)
02.05.2013 08:50 12,3 C 11,8 C 82 % 1018,9 hPa 0,0 l/m 0 min 0 min 0,0 UV-I 109 W/m 0,0 km/h (0 Bft)
02.05.2013 08:52 12,3 C 11,8 C 82 % 1018,9 hPa 0,0 l/m 0 min 0 min 0,0 UV-I 114 W/m 0,0 km/h (0 Bft)
02.05.2013 08:54 12,3 C 12,3 C 82 % 1019,0 hPa 0,0 l/m 0 min 0 min 0,0 UV-I 121 W/m 0,0 km/h (0 Bft)
02.05.2013 08:56 12,4 C 12,3 C 82 % 1019,0 hPa 0,0 l/m 0 min 0 min 0,0 UV-I 114 W/m 2,6 km/h (1 Bft)
02.05.2013 08:58 12,4 C 12,3 C 82 % 1019,1 hPa 0,0 l/m 0 min 0 min 0,0 UV-I 111 W/m 0,0 km/h (0 Bft)
02.05.2013 09:00 12,4 C 12,3 C 81 % 1019,0 hPa 0,0 l/m 0 min 0 min 0,0 UV-I 98 W/m 0,0 km/h (0 Bft)
02.05.2013 09:02 12,4 C 12,3 C 81 % 1019,1 hPa 0,0 l/m 0 min 0 min 0,0 UV-I 97 W/m 0,0 km/h (0 Bft)
02.05.2013 09:04 12,5 C 12,3 C 81 % 1019,1 hPa 0,0 l/m 0 min 0 min 0,0 UV-I 95 W/m 0,0 km/h (0 Bft)
02.05.2013 09:06 12,6 C 12,3 C 81 % 1019,2 hPa 0,0 l/m 0 min 0 min 0,0 UV-I 98 W/m 0,0 km/h (0 Bft)
02.05.2013 09:08 12,6 C 12,3 C 81 % 1019,2 hPa 0,0 l/m 0 min 0 min 0,0 UV-I 100 W/m 2,6 km/h (1 Bft)
02.05.2013 09:10 12,6 C 12,3 C 81 % 1019,2 hPa 0,0 l/m 0 min 0 min 0,0 UV-I 98 W/m 0,0 km/h (0 Bft)
02.05.2013 09:12 12,6 C 12,3 C 81 % 1019,3 hPa 0,0 l/m 0 min 0 min 0,0 UV-I 93 W/m 0,0 km/h (0 Bft)
02.05.2013 09:14 12,7 C 12,3 C 81 % 1019,3 hPa 0,0 l/m 0 min 0 min 0,0 UV-I 90 W/m 0,0 km/h (0 Bft)
02.05.2013 09:16 12,7 C 12,3 C 80 % 1019,3 hPa 0,0 l/m 0 min 0 min 0,0 UV-I 88 W/m 0,0 km/h (0 Bft)
02.05.2013 09:18 12,7 C 12,3 C 80 % 1019,3 hPa 0,0 l/m 0 min 0 min 0,0 UV-I 90 W/m 5,1 km/h (1 Bft)
02.05.2013 09:20 12,7 C 12,3 C 80 % 1019,3 hPa 0,0 l/m 0 min 0 min 0,0 UV-I 93 W/m 2,6 km/h (1 Bft)
02.05.2013 09:22 12,8 C 12,3 C 80 % 1019,3 hPa 0,0 l/m 0 min 0 min 0,0 UV-I 104 W/m 0,0 km/h (0 Bft)
02.05.2013 09:24 12,8 C 12,3 C 80 % 1019,3 hPa 0,0 l/m 0 min 0 min 0,0 UV-I 113 W/m 2,6 km/h (1 Bft)
02.05.2013 09:26 12,8 C 12,3 C 80 % 1019,3 hPa 0,0 l/m 0 min 0 min 0,0 UV-I 118 W/m 5,1 km/h (1 Bft)
02.05.2013 09:28 12,8 C 12,9 C 80 % 1019,3 hPa 0,0 l/m 0 min 0 min 0,0 UV-I 125 W/m 7,7 km/h (2 Bft)
02.05.2013 09:30 12,9 C 12,9 C 80 % 1019,3 hPa 0,0 l/m 0 min 0 min 0,0 UV-I 132 W/m 0,0 km/h (0 Bft)
02.05.2013 09:32 12,9 C 12,9 C 80 % 1019,3 hPa 0,0 l/m 0 min 0 min 0,0 UV-I 144 W/m 2,6 km/h (1 Bft)
02.05.2013 09:34 12,9 C 12,9 C 80 % 1019,2 hPa 0,0 l/m 0 min 0 min 0,0 UV-I 167 W/m 0,0 km/h (0 Bft)
02.05.2013 09:36 13,0 C 12,9 C 80 % 1019,2 hPa 0,0 l/m 0 min 0 min 0,0 UV-I 179 W/m 7,7 km/h (2 Bft)
02.05.2013 09:38 13,1 C 13,4 C 80 % 1019,3 hPa 0,0 l/m 0 min 0 min 0,0 UV-I 186 W/m 5,1 km/h (1 Bft)
02.05.2013 09:40 13,1 C 13,4 C 80 % 1019,3 hPa 0,0 l/m 0 min 0 min 0,0 UV-I 192 W/m 0,0 km/h (0 Bft)
02.05.2013 09:42 13,2 C 13,4 C 80 % 1019,2 hPa 0,0 l/m 0 min 0 min 0,0 UV-I 195 W/m 2,6 km/h (1 Bft)
02.05.2013 09:44 13,2 C 13,4 C 80 % 1019,1 hPa 0,0 l/m 0 min 0 min 0,0 UV-I 206 W/m 7,7 km/h (2 Bft)
02.05.2013 09:46 13,3 C 13,4 C 79 % 1019,1 hPa 0,0 l/m 0 min 0 min 0,0 UV-I 230 W/m 10,3 km/h (2 Bft)
02.05.2013 09:48 13,3 C 14,0 C 79 % 1019,1 hPa 0,0 l/m 0 min 0 min 0,0 UV-I 236 W/m 10,3 km/h (2 Bft)
02.05.2013 09:50 13,4 C 14,0 C 79 % 1019,2 hPa 0,0 l/m 0 min 0 min 0,0 UV-I 239 W/m 5,1 km/h (1 Bft)
02.05.2013 09:52 13,5 C 14,0 C 78 % 1019,2 hPa 0,0 l/m 0 min 0 min 0,0 UV-I 230 W/m 7,7 km/h (2 Bft)
02.05.2013 09:54 13,6 C 14,0 C 78 % 1019,2 hPa 0,0 l/m 0 min 0 min 0,0 UV-I 227 W/m 7,7 km/h (2 Bft)
02.05.2013 09:56 13,7 C 14,0 C 79 % 1019,2 hPa 0,0 l/m 0 min 0 min 0,0 UV-I 232 W/m 10,3 km/h (2 Bft)
02.05.2013 09:58 13,8 C 14,6 C 78 % 1019,2 hPa 0,0 l/m 0 min 0 min 0,0 UV-I 253 W/m 5,1 km/h (1 Bft)
02.05.2013 10:00 13,8 C 14,6 C 78 % 1019,2 hPa 0,0 l/m 0 min 0 min 0,0 UV-I 262 W/m 5,1 km/h (1 Bft)
02.05.2013 10:02 13,9 C 14,6 C 78 % 1019,2 hPa 0,0 l/m 0 min 0 min 0,0 UV-I 267 W/m 5,1 km/h (1 Bft)
02.05.2013 10:04 14,0 C 14,6 C 78 % 1019,2 hPa 0,0 l/m 0 min 0 min 0,0 UV-I 251 W/m 10,3 km/h (2 Bft)
02.05.2013 10:06 14,0 C 14,6 C 77 % 1019,3 hPa 0,0 l/m 0 min 0 min 0,0 UV-I 239 W/m 12,9 km/h (3 Bft)
02.05.2013 10:08 14,0 C 14,6 C 76 % 1019,2 hPa 0,0 l/m 0 min 0 min 0,0 UV-I 227 W/m 7,7 km/h (2 Bft)
02.05.2013 10:10 14,1 C 14,6 C 76 % 1019,2 hPa 0,0 l/m 0 min 0 min 0,0 UV-I 207 W/m 5,1 km/h (1 Bft)
02.05.2013 10:12 14,2 C 14,6 C 76 % 1019,3 hPa 0,0 l/m 0 min 0 min 0,0 UV-I 199 W/m 2,6 km/h (1 Bft)
02.05.2013 10:14 14,2 C 14,6 C 76 % 1019,3 hPa 0,0 l/m 0 min 0 min 0,0 UV-I 190 W/m 7,7 km/h (2 Bft)
02.05.2013 10:16 14,3 C 14,0 C 75 % 1019,3 hPa 0,0 l/m 0 min 0 min 0,0 UV-I 185 W/m 15,4 km/h (3 Bft)
02.05.2013 10:18 14,3 C 14,0 C 75 % 1019,3 hPa 0,0 l/m 0 min 0 min 0,0 UV-I 181 W/m 10,3 km/h (2 Bft)
02.05.2013 10:20 14,3 C 14,0 C 75 % 1019,4 hPa 0,0 l/m 0 min 0 min 0,0 UV-I 174 W/m 10,3 km/h (2 Bft)
02.05.2013 10:22 14,3 C 14,0 C 74 % 1019,3 hPa 0,0 l/m 0 min 0 min 0,0 UV-I 165 W/m 10,3 km/h (2 Bft)
02.05.2013 10:24 14,3 C 14,0 C 75 % 1019,3 hPa 0,0 l/m 0 min 0 min 0,0 UV-I 153 W/m 2,6 km/h (1 Bft)
02.05.2013 10:26 14,3 C 14,0 C 75 % 1019,3 hPa 0,0 l/m 0 min 0 min 0,0 UV-I 148 W/m 5,1 km/h (1 Bft)
02.05.2013 10:28 14,3 C 14,0 C 74 % 1019,3 hPa 0,0 l/m 0 min 0 min 0,0 UV-I 144 W/m 0,0 km/h (0 Bft)
02.05.2013 10:30 14,3 C 14,0 C 74 % 1019,4 hPa 0,0 l/m 0 min 0 min 0,0 UV-I 144 W/m 10,3 km/h (2 Bft)
02.05.2013 10:32 14,3 C 14,0 C 74 % 1019,4 hPa 0,0 l/m 0 min 0 min 0,0 UV-I 149 W/m 10,3 km/h (2 Bft)
02.05.2013 10:34 14,3 C 14,6 C 74 % 1019,4 hPa 0,0 l/m 0 min 0 min 0,0 UV-I 160 W/m 5,1 km/h (1 Bft)
02.05.2013 10:36 14,3 C 14,6 C 75 % 1019,4 hPa 0,0 l/m 0 min 0 min 0,0 UV-I 163 W/m 0,0 km/h (0 Bft)
02.05.2013 10:38 14,4 C 14,6 C 75 % 1019,4 hPa 0,0 l/m 0 min 0 min 0,0 UV-I 174 W/m 5,1 km/h (1 Bft)
02.05.2013 10:40 14,4 C 14,6 C 75 % 1019,3 hPa 0,0 l/m 0 min 0 min 0,0 UV-I 186 W/m 7,7 km/h (2 Bft)
02.05.2013 10:42 14,4 C 14,6 C 74 % 1019,3 hPa 0,0 l/m 0 min 0 min 0,0 UV-I 197 W/m 5,1 km/h (1 Bft)
02.05.2013 10:44 14,4 C 14,6 C 74 % 1019,3 hPa 0,0 l/m 0 min 0 min 0,0 UV-I 204 W/m 7,7 km/h (2 Bft)
02.05.2013 10:46 14,5 C 14,6 C 74 % 1019,3 hPa 0,0 l/m 0 min 0 min 0,0 UV-I 209 W/m 0,0 km/h (0 Bft)
02.05.2013 10:48 14,5 C 14,6 C 74 % 1019,3 hPa 0,0 l/m 0 min 0 min 0,0 UV-I 218 W/m 7,7 km/h (2 Bft)
02.05.2013 10:50 14,6 C 15,1 C 74 % 1019,3 hPa 0,0 l/m 0 min 0 min 0,0 UV-I 236 W/m 7,7 km/h (2 Bft)
02.05.2013 10:52 14,6 C 15,1 C 74 % 1019,3 hPa 0,0 l/m 0 min 0 min 0,0 UV-I 241 W/m 5,1 km/h (1 Bft)
02.05.2013 10:54 14,7 C 15,1 C 74 % 1019,3 hPa 0,0 l/m 0 min 0 min 0,0 UV-I 244 W/m 7,7 km/h (2 Bft)
02.05.2013 10:56 14,7 C 15,1 C 73 % 1019,3 hPa 0,0 l/m 0 min 0 min 0,5 UV-I 253 W/m 7,7 km/h (2 Bft)
02.05.2013 10:58 14,8 C 15,1 C 73 % 1019,3 hPa 0,0 l/m 0 min 0 min 0,5 UV-I 264 W/m 5,1 km/h (1 Bft)
02.05.2013 11:00 14,8 C 15,1 C 73 % 1019,3 hPa 0,0 l/m 0 min 0 min 0,5 UV-I 251 W/m 7,7 km/h (2 Bft)
02.05.2013 11:02 14,9 C 15,7 C 73 % 1019,2 hPa 0,0 l/m 0 min 0 min 0,5 UV-I 272 W/m 12,9 km/h (3 Bft)
02.05.2013 11:04 14,9 C 15,7 C 73 % 1019,2 hPa 0,0 l/m 0 min 0 min 0,7 UV-I 302 W/m 7,7 km/h (2 Bft)
02.05.2013 11:06 15,0 C 15,7 C 73 % 1019,2 hPa 0,0 l/m 0 min 0 min 0,9 UV-I 348 W/m 7,7 km/h (2 Bft)
02.05.2013 11:08 15,2 C 16,2 C 73 % 1019,2 hPa 0,0 l/m 2 min 0 min 1,1 UV-I 475 W/m 5,1 km/h (1 Bft)
02.05.2013 11:10 15,5 C 17,9 C 73 % 1019,1 hPa 0,0 l/m 2 min 0 min 1,7 UV-I 693 W/m 10,3 km/h (2 Bft)
02.05.2013 11:12 15,8 C 19,6 C 71 % 1019,1 hPa 0,0 l/m 2 min 0 min 2,1 UV-I 796 W/m 10,3 km/h (2 Bft)
02.05.2013 11:14 16,2 C 20,1 C 70 % 1019,2 hPa 0,0 l/m 2 min 0 min 1,6 UV-I 489 W/m 5,1 km/h (1 Bft)
02.05.2013 11:16 16,3 C 19,0 C 69 % 1019,2 hPa 0,0 l/m 2 min 0 min 1,5 UV-I 438 W/m 10,3 km/h (2 Bft)
02.05.2013 11:18 16,3 C 18,4 C 69 % 1019,2 hPa 0,0 l/m 2 min 0 min 1,5 UV-I 441 W/m 10,3 km/h (2 Bft)
02.05.2013 11:20 16,4 C 18,4 C 69 % 1019,2 hPa 0,0 l/m 2 min 0 min 2,0 UV-I 471 W/m 10,3 km/h (2 Bft)
02.05.2013 11:22 16,6 C 19,0 C 69 % 1019,2 hPa 0,0 l/m 2 min 0 min 1,7 UV-I 480 W/m 7,7 km/h (2 Bft)
02.05.2013 11:24 16,6 C 19,0 C 67 % 1019,1 hPa 0,0 l/m 2 min 0 min 1,5 UV-I 424 W/m 15,4 km/h (3 Bft)
02.05.2013 11:26 16,4 C 18,4 C 68 % 1019,2 hPa 0,0 l/m 2 min 0 min 1,6 UV-I 471 W/m 15,4 km/h (3 Bft)
02.05.2013 11:28 16,5 C 18,4 C 67 % 1019,1 hPa 0,0 l/m 0 min 0 min 1,5 UV-I 396 W/m 10,3 km/h (2 Bft)
02.05.2013 11:30 16,5 C 17,9 C 69 % 1019,1 hPa 0,0 l/m 0 min 0 min 1,5 UV-I 359 W/m 12,9 km/h (3 Bft)
02.05.2013 11:32 16,5 C 18,4 C 67 % 1019,1 hPa 0,0 l/m 0 min 0 min 1,6 UV-I 364 W/m 7,7 km/h (2 Bft)
02.05.2013 11:34 16,6 C 17,9 C 68 % 1019,1 hPa 0,0 l/m 2 min 0 min 2,1 UV-I 512 W/m 15,4 km/h (3 Bft)
02.05.2013 11:36 16,6 C 18,4 C 68 % 1019,1 hPa 0,0 l/m 2 min 0 min 2,3 UV-I 533 W/m 10,3 km/h (2 Bft)
02.05.2013 11:38 16,7 C 18,4 C 68 % 1019,1 hPa 0,0 l/m 2 min 0 min 2,4 UV-I 701 W/m 10,3 km/h (2 Bft)
02.05.2013 11:40 16,9 C 19,6 C 68 % 1019,1 hPa 0,0 l/m 2 min 0 min 2,5 UV-I 712 W/m 2,6 km/h (1 Bft)
02.05.2013 11:42 17,3 C 20,1 C 67 % 1019,0 hPa 0,0 l/m 2 min 0 min 2,6 UV-I 731 W/m 2,6 km/h (1 Bft)
02.05.2013 11:44 17,3 C 20,7 C 65 % 1019,1 hPa 0,0 l/m 2 min 0 min 2,6 UV-I 731 W/m 12,9 km/h (3 Bft)
02.05.2013 11:46 17,2 C 21,2 C 64 % 1019,1 hPa 0,0 l/m 2 min 0 min 2,6 UV-I 744 W/m 10,3 km/h (2 Bft)
02.05.2013 11:48 17,3 C 22,3 C 66 % 1019,1 hPa 0,0 l/m 2 min 0 min 2,6 UV-I 752 W/m 7,7 km/h (2 Bft)
02.05.2013 11:50 17,3 C 22,3 C 64 % 1019,1 hPa 0,0 l/m 2 min 0 min 2,6 UV-I 745 W/m 10,3 km/h (2 Bft)
02.05.2013 11:52 17,6 C 22,9 C 65 % 1019,1 hPa 0,0 l/m 2 min 0 min 2,7 UV-I 747 W/m 10,3 km/h (2 Bft)
02.05.2013 11:54 17,9 C 23,4 C 64 % 1019,1 hPa 0,0 l/m 2 min 0 min 2,7 UV-I 761 W/m 10,3 km/h (2 Bft)
02.05.2013 11:56 17,8 C 23,4 C 62 % 1019,1 hPa 0,0 l/m 2 min 0 min 2,7 UV-I 761 W/m 12,9 km/h (3 Bft)
02.05.2013 11:58 17,7 C 22,9 C 63 % 1019,1 hPa 0,0 l/m 2 min 0 min 2,5 UV-I 761 W/m 12,9 km/h (3 Bft)
02.05.2013 12:00 17,7 C 22,9 C 64 % 1019,1 hPa 0,0 l/m 2 min 0 min 2,4 UV-I 714 W/m 12,9 km/h (3 Bft)
02.05.2013 12:02 17,8 C 24,0 C 64 % 1019,1 hPa 0,0 l/m 2 min 0 min 2,5 UV-I 788 W/m 12,9 km/h (3 Bft)
02.05.2013 12:04 17,8 C 22,3 C 62 % 1019,1 hPa 0,0 l/m 2 min 0 min 1,9 UV-I 745 W/m 12,9 km/h (3 Bft)
02.05.2013 12:06 17,5 C 21,8 C 63 % 1019,0 hPa 0,0 l/m 2 min 0 min 2,0 UV-I 686 W/m 12,9 km/h (3 Bft)
02.05.2013 12:08 17,5 C 20,7 C 63 % 1019,0 hPa 0,0 l/m 0 min 0 min 1,2 UV-I 343 W/m 10,3 km/h (2 Bft)
02.05.2013 12:10 17,6 C 20,1 C 66 % 1019,1 hPa 0,0 l/m 0 min 0 min 1,2 UV-I 332 W/m 10,3 km/h (2 Bft)
02.05.2013 12:12 17,7 C 20,1 C 64 % 1019,1 hPa 0,0 l/m 0 min 0 min 1,1 UV-I 322 W/m 12,9 km/h (3 Bft)
02.05.2013 12:14 17,7 C 19,6 C 64 % 1019,1 hPa 0,0 l/m 0 min 0 min 1,2 UV-I 334 W/m 10,3 km/h (2 Bft)
02.05.2013 12:16 17,5 C 19,0 C 63 % 1019,1 hPa 0,0 l/m 0 min 0 min 1,3 UV-I 353 W/m 15,4 km/h (3 Bft)
02.05.2013 12:18 17,3 C 19,0 C 63 % 1019,1 hPa 0,0 l/m 0 min 0 min 1,4 UV-I 390 W/m 18,0 km/h (3 Bft)
02.05.2013 12:20 17,3 C 19,0 C 64 % 1019,1 hPa 0,0 l/m 0 min 0 min 1,4 UV-I 408 W/m 12,9 km/h (3 Bft)
02.05.2013 12:22 17,3 C 19,0 C 64 % 1019,1 hPa 0,0 l/m 0 min 0 min 1,5 UV-I 424 W/m 12,9 km/h (3 Bft)
02.05.2013 12:24 17,2 C 19,0 C 63 % 1019,1 hPa 0,0 l/m 2 min 0 min 1,4 UV-I 471 W/m 15,4 km/h (3 Bft)
02.05.2013 12:26 17,2 C 19,0 C 64 % 1019,1 hPa 0,0 l/m 0 min 0 min 1,3 UV-I 385 W/m 7,7 km/h (2 Bft)
02.05.2013 12:28 17,4 C 19,0 C 63 % 1019,1 hPa 0,0 l/m 0 min 0 min 1,2 UV-I 355 W/m 10,3 km/h (2 Bft)
02.05.2013 12:30 17,3 C 18,4 C 63 % 1019,1 hPa 0,0 l/m 0 min 0 min 1,2 UV-I 341 W/m 2,6 km/h (1 Bft)
02.05.2013 12:32 17,3 C 18,4 C 63 % 1019,1 hPa 0,0 l/m 0 min 0 min 1,3 UV-I 345 W/m 20,6 km/h (4 Bft)
02.05.2013 12:34 17,2 C 17,9 C 64 % 1019,0 hPa 0,0 l/m 0 min 0 min 1,3 UV-I 352 W/m 18,0 km/h (3 Bft)
02.05.2013 12:36 17,3 C 17,9 C 63 % 1019,1 hPa 0,0 l/m 0 min 0 min 1,4 UV-I 355 W/m 18,0 km/h (3 Bft)
02.05.2013 12:38 17,3 C 18,4 C 64 % 1019,1 hPa 0,0 l/m 0 min 0 min 1,5 UV-I 366 W/m 2,6 km/h (1 Bft)
02.05.2013 12:40 17,5 C 18,4 C 63 % 1019,0 hPa 0,0 l/m 0 min 0 min 1,6 UV-I 390 W/m 5,1 km/h (1 Bft)
02.05.2013 12:42 17,6 C 19,0 C 63 % 1019,0 hPa 0,0 l/m 2 min 0 min 2,2 UV-I 483 W/m 10,3 km/h (2 Bft)
02.05.2013 12:44 17,6 C 20,1 C 63 % 1019,0 hPa 0,0 l/m 2 min 0 min 2,1 UV-I 483 W/m 15,4 km/h (3 Bft)
02.05.2013 12:46 17,8 C 20,7 C 64 % 1018,9 hPa 0,0 l/m 2 min 0 min 2,3 UV-I 635 W/m 18,0 km/h (3 Bft)
02.05.2013 12:48 17,7 C 20,1 C 62 % 1019,0 hPa 0,0 l/m 2 min 0 min 1,9 UV-I 522 W/m 15,4 km/h (3 Bft)
02.05.2013 12:50 17,6 C 20,1 C 62 % 1018,9 hPa 0,0 l/m 2 min 0 min 1,7 UV-I 438 W/m 10,3 km/h (2 Bft)
02.05.2013 12:52 17,7 C 19,6 C 63 % 1018,9 hPa 0,0 l/m 0 min 0 min 1,6 UV-I 411 W/m 2,6 km/h (1 Bft)
02.05.2013 12:54 17,8 C 19,6 C 63 % 1018,9 hPa 0,0 l/m 0 min 0 min 1,5 UV-I 392 W/m 0,0 km/h (0 Bft)
02.05.2013 12:56 17,8 C 19,6 C 62 % 1018,9 hPa 0,0 l/m 0 min 0 min 1,5 UV-I 387 W/m 7,7 km/h (2 Bft)
02.05.2013 12:58 17,7 C 19,0 C 61 % 1018,9 hPa 0,0 l/m 0 min 0 min 1,5 UV-I 378 W/m 15,4 km/h (3 Bft)
02.05.2013 13:00 17,6 C 18,4 C 61 % 1018,9 hPa 0,0 l/m 0 min 0 min 1,4 UV-I 364 W/m 10,3 km/h (2 Bft)
02.05.2013 13:02 17,7 C 19,0 C 63 % 1018,9 hPa 0,0 l/m 0 min 0 min 1,4 UV-I 355 W/m 2,6 km/h (1 Bft)
02.05.2013 13:04 17,8 C 19,0 C 61 % 1018,9 hPa 0,0 l/m 0 min 0 min 1,4 UV-I 353 W/m 10,3 km/h (2 Bft)
02.05.2013 13:06 17,7 C 19,0 C 61 % 1018,9 hPa 0,0 l/m 0 min 0 min 1,4 UV-I 355 W/m 7,7 km/h (2 Bft)
02.05.2013 13:08 17,7 C 19,0 C 62 % 1018,9 hPa 0,0 l/m 0 min 0 min 1,3 UV-I 352 W/m 2,6 km/h (1 Bft)
02.05.2013 13:10 17,7 C 19,0 C 61 % 1018,8 hPa 0,0 l/m 0 min 0 min 1,3 UV-I 348 W/m 10,3 km/h (2 Bft)
02.05.2013 13:12 17,8 C 19,0 C 63 % 1018,9 hPa 0,0 l/m 0 min 0 min 1,3 UV-I 350 W/m 2,6 km/h (1 Bft)
02.05.2013 13:14 17,8 C 19,0 C 60 % 1018,8 hPa 0,0 l/m 0 min 0 min 1,4 UV-I 355 W/m 7,7 km/h (2 Bft)
02.05.2013 13:16 17,6 C 18,4 C 60 % 1018,8 hPa 0,0 l/m 0 min 0 min 1,4 UV-I 374 W/m 5,1 km/h (1 Bft)
02.05.2013 13:18 17,8 C 19,0 C 63 % 1018,8 hPa 0,0 l/m 0 min 0 min 1,4 UV-I 367 W/m 7,7 km/h (2 Bft)
02.05.2013 13:20 17,9 C 19,0 C 61 % 1018,9 hPa 0,0 l/m 0 min 0 min 1,4 UV-I 380 W/m 10,3 km/h (2 Bft)
02.05.2013 13:22 17,9 C 19,0 C 60 % 1018,8 hPa 0,0 l/m 0 min 0 min 1,4 UV-I 381 W/m 12,9 km/h (3 Bft)
02.05.2013 13:24 17,9 C 19,0 C 61 % 1018,8 hPa 0,0 l/m 0 min 0 min 1,5 UV-I 408 W/m 2,6 km/h (1 Bft)
02.05.2013 13:26 18,1 C 19,6 C 61 % 1018,8 hPa 0,0 l/m 0 min 0 min 1,5 UV-I 410 W/m 10,3 km/h (2 Bft)
02.05.2013 13:28 18,1 C 19,6 C 61 % 1018,8 hPa 0,0 l/m 0 min 0 min 1,6 UV-I 392 W/m 2,6 km/h (1 Bft)
02.05.2013 13:30 17,9 C 19,0 C 60 % 1018,8 hPa 0,0 l/m 0 min 0 min 1,6 UV-I 441 W/m 12,9 km/h (3 Bft)
02.05.2013 13:32 17,8 C 19,0 C 62 % 1018,8 hPa 0,0 l/m 0 min 0 min 1,6 UV-I 408 W/m 12,9 km/h (3 Bft)
02.05.2013 13:34 17,8 C 19,0 C 62 % 1018,7 hPa 0,0 l/m 0 min 0 min 1,6 UV-I 385 W/m 10,3 km/h (2 Bft)
02.05.2013 13:36 17,9 C 19,6 C 61 % 1018,8 hPa 0,0 l/m 0 min 0 min 1,6 UV-I 399 W/m 7,7 km/h (2 Bft)
02.05.2013 13:38 17,9 C 19,0 C 60 % 1018,7 hPa 0,0 l/m 0 min 0 min 1,6 UV-I 403 W/m 7,7 km/h (2 Bft)
02.05.2013 13:40 18,1 C 19,6 C 62 % 1018,8 hPa 0,0 l/m 0 min 0 min 1,6 UV-I 388 W/m 2,6 km/h (1 Bft)
02.05.2013 13:42 18,1 C 19,6 C 60 % 1018,7 hPa 0,0 l/m 0 min 0 min 1,6 UV-I 383 W/m 7,7 km/h (2 Bft)
02.05.2013 13:44 18,3 C 19,6 C 61 % 1018,7 hPa 0,0 l/m 0 min 0 min 1,6 UV-I 378 W/m 10,3 km/h (2 Bft)
02.05.2013 13:46 18,4 C 19,6 C 59 % 1018,7 hPa 0,0 l/m 0 min 0 min 1,7 UV-I 381 W/m 10,3 km/h (2 Bft)
02.05.2013 13:48 18,3 C 19,6 C 60 % 1018,7 hPa 0,0 l/m 0 min 0 min 1,7 UV-I 385 W/m 10,3 km/h (2 Bft)
02.05.2013 13:50 18,2 C 19,0 C 59 % 1018,7 hPa 0,0 l/m 0 min 0 min 1,8 UV-I 397 W/m 10,3 km/h (2 Bft)
02.05.2013 13:52 18,2 C 19,6 C 63 % 1018,7 hPa 0,0 l/m 0 min 0 min 1,8 UV-I 418 W/m 10,3 km/h (2 Bft)
02.05.2013 13:54 18,4 C 19,6 C 60 % 1018,7 hPa 0,0 l/m 0 min 0 min 2,0 UV-I 434 W/m 12,9 km/h (3 Bft)
02.05.2013 13:56 18,4 C 19,6 C 59 % 1018,6 hPa 0,0 l/m 2 min 0 min 2,0 UV-I 454 W/m 2,6 km/h (1 Bft)
02.05.2013 13:58 18,3 C 19,6 C 60 % 1018,6 hPa 0,0 l/m 2 min 0 min 2,1 UV-I 483 W/m 12,9 km/h (3 Bft)
02.05.2013 14:00 18,3 C 19,6 C 59 % 1018,7 hPa 0,0 l/m 2 min 0 min 2,7 UV-I 496 W/m 15,4 km/h (3 Bft)
02.05.2013 14:02 18,3 C 20,1 C 59 % 1018,7 hPa 0,0 l/m 2 min 0 min 3,4 UV-I 694 W/m 15,4 km/h (3 Bft)
02.05.2013 14:04 18,6 C 20,7 C 61 % 1018,6 hPa 0,0 l/m 2 min 0 min 3,2 UV-I 882 W/m 12,9 km/h (3 Bft)
02.05.2013 14:06 18,8 C 21,2 C 60 % 1018,6 hPa 0,0 l/m 2 min 0 min 3,6 UV-I 882 W/m 10,3 km/h (2 Bft)
02.05.2013 14:08 19,4 C 21,8 C 60 % 1018,6 hPa 0,0 l/m 2 min 0 min 3,5 UV-I 942 W/m 7,7 km/h (2 Bft)
02.05.2013 14:10 19,9 C 22,3 C 59 % 1018,6 hPa 0,0 l/m 2 min 0 min 3,4 UV-I 918 W/m 7,7 km/h (2 Bft)
02.05.2013 14:12 19,9 C 21,8 C 57 % 1018,6 hPa 0,0 l/m 2 min 0 min 3,4 UV-I 891 W/m 18,0 km/h (3 Bft)
02.05.2013 14:14 19,7 C 21,8 C 57 % 1018,6 hPa 0,0 l/m 2 min 0 min 3,2 UV-I 831 W/m 7,7 km/h (2 Bft)
02.05.2013 14:16 19,9 C 21,2 C 58 % 1018,5 hPa 0,0 l/m 2 min 0 min 2,8 UV-I 587 W/m 10,3 km/h (2 Bft)
02.05.2013 14:18 19,7 C 21,2 C 58 % 1018,5 hPa 0,0 l/m 2 min 0 min 3,1 UV-I 487 W/m 10,3 km/h (2 Bft)
02.05.2013 14:20 19,6 C 20,7 C 57 % 1018,5 hPa 0,0 l/m 2 min 0 min 3,3 UV-I 816 W/m 10,3 km/h (2 Bft)
02.05.2013 14:22 19,4 C 20,7 C 56 % 1018,5 hPa 0,0 l/m 2 min 0 min 3,4 UV-I 847 W/m 18,0 km/h (3 Bft)
02.05.2013 14:24 18,9 C 19,6 C 57 % 1018,5 hPa 0,0 l/m 2 min 0 min 3,4 UV-I 856 W/m 25,7 km/h (4 Bft)
02.05.2013 14:26 19,1 C 20,1 C 59 % 1018,5 hPa 0,0 l/m 2 min 0 min 3,4 UV-I 868 W/m 12,9 km/h (3 Bft)
02.05.2013 14:28 19,4 C 20,7 C 59 % 1018,5 hPa 0,0 l/m 2 min 0 min 3,3 UV-I 846 W/m 7,7 km/h (2 Bft)
02.05.2013 14:30 19,8 C 21,2 C 59 % 1018,5 hPa 0,0 l/m 2 min 0 min 2,7 UV-I 784 W/m 12,9 km/h (3 Bft)
02.05.2013 14:32 20,2 C 21,2 C 58 % 1018,5 hPa 0,0 l/m 2 min 0 min 2,8 UV-I 680 W/m 15,4 km/h (3 Bft)
02.05.2013 14:34 20,4 C 21,2 C 56 % 1018,5 hPa 0,0 l/m 2 min 0 min 3,2 UV-I 844 W/m 7,7 km/h (2 Bft)
02.05.2013 14:36 20,4 C 21,2 C 55 % 1018,4 hPa 0,0 l/m 2 min 0 min 3,2 UV-I 842 W/m 15,4 km/h (3 Bft)
02.05.2013 14:38 20,4 C 21,2 C 56 % 1018,5 hPa 0,0 l/m 2 min 0 min 3,3 UV-I 817 W/m 10,3 km/h (2 Bft)
02.05.2013 14:40 20,3 C 21,2 C 56 % 1018,3 hPa 0,0 l/m 2 min 0 min 3,3 UV-I 807 W/m 18,0 km/h (3 Bft)
02.05.2013 14:42 20,2 C 21,2 C 58 % 1018,3 hPa 0,0 l/m 2 min 0 min 3,2 UV-I 807 W/m 10,3 km/h (2 Bft)
02.05.2013 14:44 20,5 C 21,2 C 57 % 1018,4 hPa 0,0 l/m 2 min 0 min 3,2 UV-I 793 W/m 12,9 km/h (3 Bft)
02.05.2013 14:46 20,6 C 21,2 C 55 % 1018,4 hPa 0,0 l/m 2 min 0 min 3,3 UV-I 817 W/m 7,7 km/h (2 Bft)
02.05.2013 14:48 20,4 C 21,2 C 56 % 1018,3 hPa 0,0 l/m 2 min 0 min 3,3 UV-I 828 W/m 2,6 km/h (1 Bft)
02.05.2013 14:50 20,1 C 20,7 C 55 % 1018,3 hPa 0,0 l/m 2 min 0 min 3,2 UV-I 817 W/m 2,6 km/h (1 Bft)
02.05.2013 14:52 20,2 C 21,2 C 56 % 1018,3 hPa 0,0 l/m 2 min 0 min 3,1 UV-I 798 W/m 15,4 km/h (3 Bft)
02.05.2013 14:54 20,4 C 21,2 C 56 % 1018,3 hPa 0,0 l/m 2 min 0 min 3,1 UV-I 805 W/m 10,3 km/h (2 Bft)
02.05.2013 14:56 20,5 C 21,2 C 55 % 1018,3 hPa 0,0 l/m 2 min 0 min 3,0 UV-I 773 W/m 12,9 km/h (3 Bft)
02.05.2013 14:58 20,6 C 21,2 C 55 % 1018,3 hPa 0,0 l/m 2 min 0 min 3,0 UV-I 763 W/m 15,4 km/h (3 Bft)
02.05.2013 15:00 20,4 C 21,2 C 54 % 1018,3 hPa 0,0 l/m 2 min 0 min 3,0 UV-I 758 W/m 7,7 km/h (2 Bft)
02.05.2013 15:02 20,3 C 21,2 C 56 % 1018,2 hPa 0,0 l/m 2 min 0 min 3,0 UV-I 777 W/m 5,1 km/h (1 Bft)
02.05.2013 15:04 20,1 C 20,7 C 55 % 1018,2 hPa 0,0 l/m 2 min 0 min 3,1 UV-I 795 W/m 10,3 km/h (2 Bft)
02.05.2013 15:06 19,8 C 20,7 C 57 % 1018,2 hPa 0,0 l/m 2 min 0 min 3,1 UV-I 809 W/m 15,4 km/h (3 Bft)
02.05.2013 15:08 20,3 C 21,2 C 57 % 1018,2 hPa 0,0 l/m 2 min 0 min 3,0 UV-I 819 W/m 12,9 km/h (3 Bft)
02.05.2013 15:10 20,7 C 21,8 C 56 % 1018,2 hPa 0,0 l/m 2 min 0 min 2,0 UV-I 798 W/m 10,3 km/h (2 Bft)
02.05.2013 15:12 20,9 C 21,8 C 56 % 1018,2 hPa 0,0 l/m 2 min 0 min 1,9 UV-I 464 W/m 7,7 km/h (2 Bft)
02.05.2013 15:14 20,4 C 21,2 C 54 % 1018,3 hPa 0,0 l/m 0 min 0 min 1,8 UV-I 338 W/m 18,0 km/h (3 Bft)
02.05.2013 15:16 19,8 C 20,1 C 55 % 1018,2 hPa 0,0 l/m 0 min 0 min 1,6 UV-I 325 W/m 12,9 km/h (3 Bft)
02.05.2013 15:18 19,5 C 20,1 C 56 % 1018,2 hPa 0,0 l/m 0 min 0 min 2,3 UV-I 366 W/m 10,3 km/h (2 Bft)
02.05.2013 15:20 19,3 C 20,1 C 57 % 1018,2 hPa 0,0 l/m 2 min 0 min 2,2 UV-I 744 W/m 15,4 km/h (3 Bft)
02.05.2013 15:22 19,6 C 20,7 C 58 % 1018,1 hPa 0,0 l/m 2 min 0 min 1,2 UV-I 751 W/m 2,6 km/h (1 Bft)
02.05.2013 15:24 19,9 C 20,7 C 57 % 1018,2 hPa 0,0 l/m 0 min 0 min 1,1 UV-I 267 W/m 7,7 km/h (2 Bft)
02.05.2013 15:26 19,8 C 20,1 C 56 % 1018,2 hPa 0,0 l/m 0 min 0 min 1,1 UV-I 276 W/m 15,4 km/h (3 Bft)
02.05.2013 15:28 19,6 C 20,1 C 55 % 1018,2 hPa 0,0 l/m 0 min 0 min 1,2 UV-I 304 W/m 12,9 km/h (3 Bft)
02.05.2013 15:30 19,4 C 20,1 C 56 % 1018,1 hPa 0,0 l/m 0 min 0 min 1,3 UV-I 329 W/m 5,1 km/h (1 Bft)
02.05.2013 15:32 19,3 C 20,1 C 58 % 1018,1 hPa 0,0 l/m 2 min 0 min 1,7 UV-I 424 W/m 0,0 km/h (0 Bft)
02.05.2013 15:34 19,4 C 20,1 C 58 % 1018,1 hPa 0,0 l/m 2 min 0 min 2,5 UV-I 424 W/m 7,7 km/h (2 Bft)
02.05.2013 15:36 19,8 C 20,1 C 58 % 1018,0 hPa 0,0 l/m 0 min 0 min 1,4 UV-I 308 W/m 7,7 km/h (2 Bft)
02.05.2013 15:38 19,8 C 20,1 C 57 % 1018,0 hPa 0,0 l/m 0 min 0 min 1,3 UV-I 285 W/m 7,7 km/h (2 Bft)
02.05.2013 15:40 19,8 C 20,1 C 57 % 1018,0 hPa 0,0 l/m 0 min 0 min 1,5 UV-I 338 W/m 2,6 km/h (1 Bft)
02.05.2013 15:42 20,1 C 20,7 C 56 % 1018,0 hPa 0,0 l/m 2 min 0 min 2,3 UV-I 659 W/m 2,6 km/h (1 Bft)
02.05.2013 15:44 20,2 C 21,2 C 56 % 1018,0 hPa 0,0 l/m 2 min 0 min 2,5 UV-I 659 W/m 10,3 km/h (2 Bft)
02.05.2013 15:46 20,6 C 21,8 C 56 % 1018,0 hPa 0,0 l/m 2 min 0 min 1,9 UV-I 775 W/m 7,7 km/h (2 Bft)
02.05.2013 15:48 20,7 C 21,8 C 53 % 1018,0 hPa 0,0 l/m 2 min 0 min 1,7 UV-I 554 W/m 7,7 km/h (2 Bft)
02.05.2013 15:50 20,6 C 21,2 C 56 % 1018,0 hPa 0,0 l/m 2 min 0 min 1,7 UV-I 554 W/m 2,6 km/h (1 Bft)
02.05.2013 15:52 20,2 C 20,7 C 54 % 1018,0 hPa 0,0 l/m 2 min 0 min 1,7 UV-I 554 W/m 20,6 km/h (4 Bft)
02.05.2013 15:54 19,8 C 20,7 C 55 % 1018,0 hPa 0,0 l/m 2 min 0 min 1,5 UV-I 554 W/m 15,4 km/h (3 Bft)
02.05.2013 15:56 19,6 C 20,1 C 54 % 1017,9 hPa 0,0 l/m 0 min 0 min 1,3 UV-I 332 W/m 7,7 km/h (2 Bft)
02.05.2013 15:58 19,6 C 20,7 C 57 % 1018,0 hPa 0,0 l/m 0 min 0 min 1,5 UV-I 346 W/m 7,7 km/h (2 Bft)
02.05.2013 16:00 19,8 C 20,7 C 57 % 1017,9 hPa 0,0 l/m 2 min 0 min 1,9 UV-I 731 W/m 2,6 km/h (1 Bft)
02.05.2013 16:02 20,0 C 21,2 C 55 % 1017,9 hPa 0,0 l/m 2 min 0 min 1,9 UV-I 779 W/m 2,6 km/h (1 Bft)
02.05.2013 16:04 20,6 C 21,8 C 57 % 1017,9 hPa 0,0 l/m 2 min 0 min 1,8 UV-I 784 W/m 5,1 km/h (1 Bft)
02.05.2013 16:06 20,7 C 21,8 C 53 % 1017,8 hPa 0,0 l/m 2 min 0 min 1,3 UV-I 745 W/m 5,1 km/h (1 Bft)
02.05.2013 16:08 20,3 C 21,8 C 53 % 1017,8 hPa 0,0 l/m 2 min 0 min 1,5 UV-I 656 W/m 2,6 km/h (1 Bft)
02.05.2013 16:10 20,3 C 21,8 C 57 % 1017,8 hPa 0,0 l/m 0 min 0 min 1,0 UV-I 316 W/m 18,0 km/h (3 Bft)
02.05.2013 16:12 20,1 C 20,7 C 55 % 1017,8 hPa 0,0 l/m 0 min 0 min 0,9 UV-I 301 W/m 18,0 km/h (3 Bft)
02.05.2013 16:14 19,8 C 20,1 C 56 % 1017,9 hPa 0,0 l/m 0 min 0 min 0,9 UV-I 283 W/m 12,9 km/h (3 Bft)
02.05.2013 16:16 19,6 C 19,6 C 57 % 1017,9 hPa 0,0 l/m 0 min 0 min 0,9 UV-I 269 W/m 25,7 km/h (4 Bft)
02.05.2013 16:18 19,3 C 19,6 C 57 % 1017,9 hPa 0,0 l/m 0 min 0 min 1,3 UV-I 283 W/m 23,2 km/h (4 Bft)
02.05.2013 16:20 19,3 C 20,1 C 58 % 1017,8 hPa 0,0 l/m 2 min 0 min 1,1 UV-I 494 W/m 18,0 km/h (3 Bft)
02.05.2013 16:22 19,3 C 20,1 C 58 % 1017,7 hPa 0,0 l/m 2 min 0 min 1,3 UV-I 578 W/m 30,9 km/h (5 Bft)
02.05.2013 16:24 19,3 C 20,1 C 57 % 1017,7 hPa 0,0 l/m 2 min 0 min 1,0 UV-I 411 W/m 18,0 km/h (3 Bft)
02.05.2013 16:26 19,4 C 20,1 C 59 % 1017,6 hPa 0,0 l/m 2 min 0 min 1,3 UV-I 613 W/m 12,9 km/h (3 Bft)
02.05.2013 16:28 19,6 C 20,1 C 57 % 1017,6 hPa 0,0 l/m 2 min 0 min 1,2 UV-I 671 W/m 20,6 km/h (4 Bft)
02.05.2013 16:30 19,8 C 20,7 C 58 % 1017,5 hPa 0,0 l/m 2 min 0 min 1,0 UV-I 671 W/m 15,4 km/h (3 Bft)
02.05.2013 16:32 19,7 C 20,1 C 56 % 1017,5 hPa 0,0 l/m 2 min 0 min 0,9 UV-I 671 W/m 30,9 km/h (5 Bft)
02.05.2013 16:34 19,7 C 20,1 C 57 % 1017,5 hPa 0,0 l/m 0 min 0 min 0,7 UV-I 299 W/m 18,0 km/h (3 Bft)
02.05.2013 16:36 19,6 C 20,1 C 57 % 1017,5 hPa 0,0 l/m 0 min 0 min 0,6 UV-I 237 W/m 12,9 km/h (3 Bft)
02.05.2013 16:38 19,5 C 19,6 C 57 % 1017,4 hPa 0,0 l/m 0 min 0 min 0,5 UV-I 232 W/m 15,4 km/h (3 Bft)
02.05.2013 16:40 19,4 C 19,6 C 57 % 1017,5 hPa 0,0 l/m 0 min 0 min 0,5 UV-I 246 W/m 15,4 km/h (3 Bft)
02.05.2013 16:42 19,3 C 19,6 C 57 % 1017,5 hPa 0,0 l/m 0 min 0 min 0,6 UV-I 285 W/m 12,9 km/h (3 Bft)
02.05.2013 16:44 19,2 C 19,6 C 58 % 1017,4 hPa 0,0 l/m 0 min 0 min 0,7 UV-I 274 W/m 10,3 km/h (2 Bft)
02.05.2013 16:46 19,3 C 19,6 C 57 % 1017,4 hPa 0,0 l/m 0 min 0 min 0,6 UV-I 225 W/m 7,7 km/h (2 Bft)
02.05.2013 16:48 19,3 C 19,0 C 57 % 1017,4 hPa 0,0 l/m 0 min 0 min 0,5 UV-I 172 W/m 12,9 km/h (3 Bft)
02.05.2013 16:50 19,1 C 19,0 C 57 % 1017,3 hPa 0,0 l/m 0 min 0 min 0,0 UV-I 160 W/m 5,1 km/h (1 Bft)
02.05.2013 16:52 19,1 C 19,0 C 58 % 1017,4 hPa 0,0 l/m 0 min 0 min 0,0 UV-I 158 W/m 2,6 km/h (1 Bft)
02.05.2013 16:54 19,0 C 19,0 C 58 % 1017,3 hPa 0,0 l/m 0 min 0 min 0,0 UV-I 181 W/m 7,7 km/h (2 Bft)
02.05.2013 16:56 19,0 C 19,0 C 60 % 1017,3 hPa 0,0 l/m 0 min 0 min 0,0 UV-I 197 W/m 7,7 km/h (2 Bft)
02.05.2013 16:58 19,0 C 19,0 C 58 % 1017,3 hPa 0,0 l/m 0 min 0 min 0,5 UV-I 214 W/m 15,4 km/h (3 Bft)
02.05.2013 17:00 18,9 C 19,0 C 58 % 1017,3 hPa 0,0 l/m 0 min 0 min 0,7 UV-I 264 W/m 15,4 km/h (3 Bft)
02.05.2013 17:02 18,9 C 19,0 C 59 % 1017,3 hPa 0,0 l/m 2 min 0 min 0,6 UV-I 424 W/m 2,6 km/h (1 Bft)
02.05.2013 17:04 19,0 C 19,0 C 59 % 1017,3 hPa 0,0 l/m 0 min 0 min 0,5 UV-I 248 W/m 7,7 km/h (2 Bft)
02.05.2013 17:06 19,1 C 19,0 C 58 % 1017,3 hPa 0,0 l/m 0 min 0 min 0,7 UV-I 299 W/m 7,7 km/h (2 Bft)
02.05.2013 17:08 19,1 C 19,0 C 59 % 1017,3 hPa 0,0 l/m 2 min 0 min 0,5 UV-I 390 W/m 10,3 km/h (2 Bft)
02.05.2013 17:10 19,3 C 19,6 C 59 % 1017,2 hPa 0,0 l/m 0 min 0 min 0,5 UV-I 292 W/m 12,9 km/h (3 Bft)
02.05.2013 17:12 19,3 C 19,6 C 58 % 1017,2 hPa 0,0 l/m 2 min 0 min 0,6 UV-I 392 W/m 20,6 km/h (4 Bft)
02.05.2013 17:14 19,3 C 19,6 C 59 % 1017,2 hPa 0,0 l/m 2 min 0 min 0,0 UV-I 496 W/m 15,4 km/h (3 Bft)
02.05.2013 17:16 19,4 C 19,6 C 57 % 1017,2 hPa 0,0 l/m 0 min 0 min 0,0 UV-I 225 W/m 18,0 km/h (3 Bft)
02.05.2013 17:18 19,3 C 19,0 C 58 % 1017,2 hPa 0,0 l/m 0 min 0 min 0,0 UV-I 186 W/m 12,9 km/h (3 Bft)
02.05.2013 17:20 19,2 C 19,0 C 58 % 1017,2 hPa 0,0 l/m 0 min 0 min 0,0 UV-I 169 W/m 10,3 km/h (2 Bft)
02.05.2013 17:22 19,3 C 19,0 C 59 % 1017,3 hPa 0,0 l/m 0 min 0 min 0,0 UV-I 163 W/m 10,3 km/h (2 Bft)
02.05.2013 17:24 19,2 C 19,0 C 59 % 1017,2 hPa 0,0 l/m 0 min 0 min 0,0 UV-I 146 W/m 10,3 km/h (2 Bft)
02.05.2013 17:26 19,2 C 19,0 C 58 % 1017,3 hPa 0,0 l/m 0 min 0 min 0,0 UV-I 153 W/m 7,7 km/h (2 Bft)
02.05.2013 17:28 19,1 C 18,4 C 58 % 1017,3 hPa 0,0 l/m 0 min 0 min 0,0 UV-I 192 W/m 12,9 km/h (3 Bft)
02.05.2013 17:30 18,9 C 18,4 C 59 % 1017,3 hPa 0,0 l/m 0 min 0 min 0,0 UV-I 265 W/m 7,7 km/h (2 Bft)
02.05.2013 17:32 19,0 C 19,0 C 59 % 1017,2 hPa 0,0 l/m 2 min 0 min 0,0 UV-I 292 W/m 5,1 km/h (1 Bft)
02.05.2013 17:34 19,2 C 19,0 C 60 % 1017,2 hPa 0,0 l/m 2 min 0 min 0,0 UV-I 434 W/m 7,7 km/h (2 Bft)
02.05.2013 17:36 19,4 C 19,6 C 59 % 1017,2 hPa 0,0 l/m 2 min 0 min 0,5 UV-I 438 W/m 10,3 km/h (2 Bft)
02.05.2013 17:38 19,6 C 19,6 C 58 % 1017,2 hPa 0,0 l/m 2 min 0 min 0,0 UV-I 504 W/m 20,6 km/h (4 Bft)
02.05.2013 17:40 19,6 C 19,6 C 57 % 1017,2 hPa 0,0 l/m 0 min 0 min 0,0 UV-I 239 W/m 12,9 km/h (3 Bft)
02.05.2013 17:42 19,5 C 19,6 C 57 % 1017,1 hPa 0,0 l/m 0 min 0 min 0,0 UV-I 197 W/m 15,4 km/h (3 Bft)
02.05.2013 17:44 19,3 C 19,0 C 58 % 1017,2 hPa 0,0 l/m 0 min 0 min 0,0 UV-I 186 W/m 10,3 km/h (2 Bft)
02.05.2013 17:46 19,3 C 19,0 C 57 % 1017,2 hPa 0,0 l/m 0 min 0 min 0,0 UV-I 211 W/m 7,7 km/h (2 Bft)
02.05.2013 17:48 19,2 C 19,0 C 57 % 1017,2 hPa 0,0 l/m 0 min 0 min 0,0 UV-I 165 W/m 12,9 km/h (3 Bft)
02.05.2013 17:50 19,1 C 18,4 C 57 % 1017,3 hPa 0,0 l/m 0 min 0 min 0,0 UV-I 163 W/m 12,9 km/h (3 Bft)
02.05.2013 17:52 19,0 C 18,4 C 57 % 1017,3 hPa 0,0 l/m 0 min 0 min 0,0 UV-I 223 W/m 10,3 km/h (2 Bft)
02.05.2013 17:54 19,0 C 18,4 C 58 % 1017,3 hPa 0,0 l/m 2 min 0 min 0,0 UV-I 318 W/m 2,6 km/h (1 Bft)
02.05.2013 17:56 19,1 C 18,4 C 58 % 1017,4 hPa 0,0 l/m 2 min 0 min 0,0 UV-I 383 W/m 12,9 km/h (3 Bft)
02.05.2013 17:58 19,2 C 19,0 C 58 % 1017,4 hPa 0,0 l/m 2 min 0 min 0,0 UV-I 381 W/m 10,3 km/h (2 Bft)
02.05.2013 18:00 19,3 C 19,0 C 57 % 1017,4 hPa 0,0 l/m 2 min 0 min 0,0 UV-I 357 W/m 7,7 km/h (2 Bft)
02.05.2013 18:02 19,4 C 19,0 C 57 % 1017,4 hPa 0,0 l/m 0 min 0 min 0,0 UV-I 179 W/m 12,9 km/h (3 Bft)
02.05.2013 18:04 19,3 C 19,0 C 56 % 1017,4 hPa 0,0 l/m 0 min 0 min 0,0 UV-I 176 W/m 10,3 km/h (2 Bft)
02.05.2013 18:06 19,3 C 19,0 C 56 % 1017,4 hPa 0,0 l/m 0 min 0 min 0,0 UV-I 176 W/m 7,7 km/h (2 Bft)
02.05.2013 18:08 19,3 C 19,0 C 57 % 1017,4 hPa 0,0 l/m 0 min 0 min 0,0 UV-I 146 W/m 18,0 km/h (3 Bft)
02.05.2013 18:10 19,2 C 18,4 C 58 % 1017,4 hPa 0,0 l/m 0 min 0 min 0,0 UV-I 153 W/m 10,3 km/h (2 Bft)
02.05.2013 18:12 19,1 C 18,4 C 58 % 1017,4 hPa 0,0 l/m 0 min 0 min 0,0 UV-I 153 W/m 7,7 km/h (2 Bft)
02.05.2013 18:14 19,0 C 18,4 C 58 % 1017,5 hPa 0,0 l/m 0 min 0 min 0,0 UV-I 144 W/m 5,1 km/h (1 Bft)
02.05.2013 18:16 18,9 C 18,4 C 58 % 1017,4 hPa 0,0 l/m 0 min 0 min 0,0 UV-I 165 W/m 2,6 km/h (1 Bft)
02.05.2013 18:18 18,9 C 18,4 C 58 % 1017,4 hPa 0,0 l/m 0 min 0 min 0,0 UV-I 178 W/m 2,6 km/h (1 Bft)
02.05.2013 18:20 18,9 C 18,4 C 59 % 1017,5 hPa 0,0 l/m 0 min 0 min 0,0 UV-I 202 W/m 10,3 km/h (2 Bft)
02.05.2013 18:22 19,1 C 19,0 C 58 % 1017,4 hPa 0,0 l/m 0 min 0 min 0,0 UV-I 202 W/m 7,7 km/h (2 Bft)
02.05.2013 18:24 19,2 C 19,0 C 59 % 1017,4 hPa 0,0 l/m 0 min 0 min 0,0 UV-I 202 W/m 2,6 km/h (1 Bft)
02.05.2013 18:26 19,3 C 19,0 C 59 % 1017,4 hPa 0,0 l/m 0 min 0 min 0,0 UV-I 195 W/m 7,7 km/h (2 Bft)
02.05.2013 18:28 19,4 C 19,0 C 57 % 1017,3 hPa 0,0 l/m 0 min 0 min 0,0 UV-I 162 W/m 15,4 km/h (3 Bft)
02.05.2013 18:30 19,4 C 19,0 C 57 % 1017,2 hPa 0,0 l/m 0 min 0 min 0,0 UV-I 144 W/m 12,9 km/h (3 Bft)
02.05.2013 18:32 19,3 C 18,4 C 57 % 1017,2 hPa 0,0 l/m 0 min 0 min 0,0 UV-I 135 W/m 10,3 km/h (2 Bft)
02.05.2013 18:34 19,2 C 18,4 C 58 % 1017,2 hPa 0,0 l/m 0 min 0 min 0,0 UV-I 167 W/m 7,7 km/h (2 Bft)
02.05.2013 18:36 19,1 C 18,4 C 58 % 1017,2 hPa 0,0 l/m 0 min 0 min 0,0 UV-I 156 W/m 7,7 km/h (2 Bft)
02.05.2013 18:38 19,1 C 18,4 C 58 % 1017,2 hPa 0,0 l/m 0 min 0 min 0,0 UV-I 123 W/m 12,9 km/h (3 Bft)
02.05.2013 18:40 19,1 C 17,9 C 58 % 1017,3 hPa 0,0 l/m 0 min 0 min 0,0 UV-I 149 W/m 12,9 km/h (3 Bft)
02.05.2013 18:42 19,0 C 17,9 C 58 % 1017,2 hPa 0,0 l/m 0 min 0 min 0,0 UV-I 167 W/m 18,0 km/h (3 Bft)
02.05.2013 18:44 18,9 C 17,9 C 59 % 1017,2 hPa 0,0 l/m 0 min 0 min 0,0 UV-I 123 W/m 10,3 km/h (2 Bft)
02.05.2013 18:46 18,8 C 17,9 C 58 % 1017,1 hPa 0,0 l/m 0 min 0 min 0,0 UV-I 116 W/m 10,3 km/h (2 Bft)
02.05.2013 18:48 18,8 C 17,9 C 59 % 1017,2 hPa 0,0 l/m 0 min 0 min 0,0 UV-I 116 W/m 10,3 km/h (2 Bft)
02.05.2013 18:50 18,8 C 17,9 C 59 % 1017,2 hPa 0,0 l/m 0 min 0 min 0,0 UV-I 109 W/m 7,7 km/h (2 Bft)
02.05.2013 18:52 18,7 C 17,9 C 59 % 1017,2 hPa 0,0 l/m 0 min 0 min 0,0 UV-I 105 W/m 5,1 km/h (1 Bft)
02.05.2013 18:54 18,7 C 17,9 C 59 % 1017,1 hPa 0,0 l/m 0 min 0 min 0,0 UV-I 104 W/m 10,3 km/h (2 Bft)
02.05.2013 18:56 18,6 C 17,9 C 59 % 1017,2 hPa 0,0 l/m 0 min 0 min 0,0 UV-I 98 W/m 7,7 km/h (2 Bft)
02.05.2013 18:58 18,6 C 17,9 C 59 % 1017,1 hPa 0,0 l/m 0 min 0 min 0,0 UV-I 91 W/m 10,3 km/h (2 Bft)
02.05.2013 19:00 18,5 C 17,3 C 59 % 1017,1 hPa 0,0 l/m 0 min 0 min 0,0 UV-I 90 W/m 10,3 km/h (2 Bft)
02.05.2013 19:02 18,4 C 17,3 C 59 % 1017,1 hPa 0,0 l/m 0 min 0 min 0,0 UV-I 90 W/m 7,7 km/h (2 Bft)
02.05.2013 19:04 18,4 C 17,3 C 59 % 1017,1 hPa 0,0 l/m 0 min 0 min 0,0 UV-I 91 W/m 10,3 km/h (2 Bft)
02.05.2013 19:06 18,4 C 17,3 C 59 % 1017,1 hPa 0,0 l/m 0 min 0 min 0,0 UV-I 91 W/m 7,7 km/h (2 Bft)
02.05.2013 19:08 18,3 C 17,3 C 59 % 1017,1 hPa 0,0 l/m 0 min 0 min 0,0 UV-I 88 W/m 7,7 km/h (2 Bft)
02.05.2013 19:10 18,3 C 17,3 C 60 % 1017,1 hPa 0,0 l/m 0 min 0 min 0,0 UV-I 84 W/m 10,3 km/h (2 Bft)
02.05.2013 19:12 18,3 C 17,3 C 59 % 1017,2 hPa 0,0 l/m 0 min 0 min 0,0 UV-I 83 W/m 10,3 km/h (2 Bft)
02.05.2013 19:14 18,2 C 17,3 C 59 % 1017,2 hPa 0,0 l/m 0 min 0 min 0,0 UV-I 79 W/m 10,3 km/h (2 Bft)
02.05.2013 19:16 18,2 C 17,3 C 59 % 1017,2 hPa 0,0 l/m 0 min 0 min 0,0 UV-I 77 W/m 10,3 km/h (2 Bft)
02.05.2013 19:18 18,2 C 17,3 C 59 % 1017,2 hPa 0,0 l/m 0 min 0 min 0,0 UV-I 77 W/m 20,6 km/h (4 Bft)
02.05.2013 19:20 18,2 C 16,8 C 59 % 1017,2 hPa 0,0 l/m 0 min 0 min 0,0 UV-I 79 W/m 7,7 km/h (2 Bft)
02.05.2013 19:22 18,1 C 16,8 C 59 % 1017,1 hPa 0,0 l/m 0 min 0 min 0,0 UV-I 79 W/m 10,3 km/h (2 Bft)
02.05.2013 19:24 18,1 C 16,8 C 59 % 1017,2 hPa 0,0 l/m 0 min 0 min 0,0 UV-I 79 W/m 5,1 km/h (1 Bft)
02.05.2013 19:26 18,0 C 16,8 C 59 % 1017,2 hPa 0,0 l/m 0 min 0 min 0,0 UV-I 86 W/m 7,7 km/h (2 Bft)
02.05.2013 19:28 18,0 C 16,8 C 60 % 1017,2 hPa 0,0 l/m 0 min 0 min 0,0 UV-I 86 W/m 10,3 km/h (2 Bft)
02.05.2013 19:30 18,0 C 16,8 C 59 % 1017,2 hPa 0,0 l/m 0 min 0 min 0,0 UV-I 76 W/m 2,6 km/h (1 Bft)
02.05.2013 19:32 18,0 C 16,8 C 59 % 1017,2 hPa 0,0 l/m 0 min 0 min 0,0 UV-I 65 W/m 10,3 km/h (2 Bft)
02.05.2013 19:34 17,9 C 16,8 C 59 % 1017,2 hPa 0,0 l/m 0 min 0 min 0,0 UV-I 60 W/m 10,3 km/h (2 Bft)
02.05.2013 19:36 17,9 C 16,8 C 60 % 1017,3 hPa 0,0 l/m 0 min 0 min 0,0 UV-I 54 W/m 5,1 km/h (1 Bft)
02.05.2013 19:38 17,9 C 16,8 C 60 % 1017,2 hPa 0,0 l/m 0 min 0 min 0,0 UV-I 46 W/m 0,0 km/h (0 Bft)
02.05.2013 19:40 17,9 C 16,8 C 60 % 1017,3 hPa 0,0 l/m 0 min 0 min 0,0 UV-I 42 W/m 10,3 km/h (2 Bft)
02.05.2013 19:42 17,8 C 16,8 C 60 % 1017,3 hPa 0,0 l/m 0 min 0 min 0,0 UV-I 39 W/m 12,9 km/h (3 Bft)
02.05.2013 19:44 17,8 C 16,8 C 60 % 1017,3 hPa 0,0 l/m 0 min 0 min 0,0 UV-I 33 W/m 5,1 km/h (1 Bft)
02.05.2013 19:46 17,7 C 16,2 C 60 % 1017,3 hPa 0,0 l/m 0 min 0 min 0,0 UV-I 32 W/m 7,7 km/h (2 Bft)
02.05.2013 19:48 17,7 C 16,2 C 60 % 1017,3 hPa 0,0 l/m 0 min 0 min 0,0 UV-I 30 W/m 7,7 km/h (2 Bft)
02.05.2013 19:50 17,7 C 16,2 C 60 % 1017,4 hPa 0,0 l/m 0 min 0 min 0,0 UV-I 26 W/m 12,9 km/h (3 Bft)
02.05.2013 19:52 17,7 C 16,2 C 60 % 1017,4 hPa 0,0 l/m 0 min 0 min 0,0 UV-I 25 W/m 7,7 km/h (2 Bft)
02.05.2013 19:54 17,7 C 16,2 C 60 % 1017,5 hPa 0,0 l/m 0 min 0 min 0,0 UV-I 23 W/m 2,6 km/h (1 Bft)
02.05.2013 19:56 17,7 C 16,2 C 60 % 1017,5 hPa 0,0 l/m 0 min 0 min 0,0 UV-I 21 W/m 10,3 km/h (2 Bft)
02.05.2013 19:58 17,6 C 16,2 C 60 % 1017,5 hPa 0,0 l/m 0 min 0 min 0,0 UV-I 21 W/m 2,6 km/h (1 Bft)
02.05.2013 20:00 17,6 C 16,2 C 60 % 1017,5 hPa 0,0 l/m 0 min 0 min 0,0 UV-I 21 W/m 10,3 km/h (2 Bft)
02.05.2013 20:02 17,6 C 16,2 C 60 % 1017,5 hPa 0,0 l/m 0 min 0 min 0,0 UV-I 21 W/m 12,9 km/h (3 Bft)
02.05.2013 20:04 17,6 C 16,2 C 60 % 1017,4 hPa 0,0 l/m 0 min 0 min 0,0 UV-I 21 W/m 7,7 km/h (2 Bft)
02.05.2013 20:06 17,5 C 15,7 C 61 % 1017,5 hPa 0,0 l/m 0 min 0 min 0,0 UV-I 21 W/m 2,6 km/h (1 Bft)
02.05.2013 20:08 17,4 C 15,7 C 61 % 1017,5 hPa 0,0 l/m 0 min 0 min 0,0 UV-I 19 W/m 7,7 km/h (2 Bft)
02.05.2013 20:10 17,4 C 15,7 C 61 % 1017,5 hPa 0,0 l/m 0 min 0 min 0,0 UV-I 18 W/m 7,7 km/h (2 Bft)
02.05.2013 20:12 17,4 C 15,7 C 61 % 1017,4 hPa 0,0 l/m 0 min 0 min 0,0 UV-I 18 W/m 5,1 km/h (1 Bft)
02.05.2013 20:14 17,3 C 15,7 C 61 % 1017,5 hPa 0,0 l/m 0 min 0 min 0,0 UV-I 18 W/m 2,6 km/h (1 Bft)
02.05.2013 20:16 17,3 C 15,7 C 61 % 1017,5 hPa 0,0 l/m 0 min 0 min 0,0 UV-I 16 W/m 0,0 km/h (0 Bft)
02.05.2013 20:18 17,3 C 15,7 C 61 % 1017,5 hPa 0,0 l/m 0 min 0 min 0,0 UV-I 16 W/m 2,6 km/h (1 Bft)
02.05.2013 20:20 17,3 C 15,7 C 61 % 1017,4 hPa 0,0 l/m 0 min 0 min 0,0 UV-I 14 W/m 5,1 km/h (1 Bft)
02.05.2013 20:22 17,2 C 15,7 C 62 % 1017,4 hPa 0,0 l/m 0 min 0 min 0,0 UV-I 14 W/m 7,7 km/h (2 Bft)
02.05.2013 20:24 17,2 C 15,7 C 61 % 1017,5 hPa 0,0 l/m 0 min 0 min 0,0 UV-I 12 W/m 7,7 km/h (2 Bft)
02.05.2013 20:26 17,2 C 15,7 C 61 % 1017,4 hPa 0,0 l/m 0 min 0 min 0,0 UV-I 12 W/m 7,7 km/h (2 Bft)
02.05.2013 20:28 17,1 C 15,7 C 61 % 1017,4 hPa 0,0 l/m 0 min 0 min 0,0 UV-I 12 W/m 5,1 km/h (1 Bft)
02.05.2013 20:30 17,1 C 15,7 C 62 % 1017,5 hPa 0,0 l/m 0 min 0 min 0,0 UV-I 11 W/m 7,7 km/h (2 Bft)
02.05.2013 20:32 17,1 C 15,7 C 61 % 1017,5 hPa 0,0 l/m 0 min 0 min 0,0 UV-I 11 W/m 10,3 km/h (2 Bft)
02.05.2013 20:34 17,0 C 15,7 C 62 % 1017,5 hPa 0,0 l/m 0 min 0 min 0,0 UV-I 9 W/m 10,3 km/h (2 Bft)
02.05.2013 20:36 17,0 C 15,7 C 61 % 1017,5 hPa 0,0 l/m 0 min 0 min 0,0 UV-I 9 W/m 7,7 km/h (2 Bft)
02.05.2013 20:38 16,9 C 15,1 C 62 % 1017,5 hPa 0,0 l/m 0 min 0 min 0,0 UV-I 7 W/m 0,0 km/h (0 Bft)
02.05.2013 20:40 16,9 C 15,1 C 61 % 1017,5 hPa 0,0 l/m 0 min 0 min 0,0 UV-I 7 W/m 0,0 km/h (0 Bft)
02.05.2013 20:42 16,9 C 15,1 C 62 % 1017,6 hPa 0,0 l/m 0 min 0 min 0,0 UV-I 7 W/m 5,1 km/h (1 Bft)
02.05.2013 20:44 16,8 C 15,1 C 62 % 1017,5 hPa 0,0 l/m 0 min 0 min 0,0 UV-I 5 W/m 7,7 km/h (2 Bft)
02.05.2013 20:46 16,8 C 15,1 C 62 % 1017,5 hPa 0,0 l/m 0 min 0 min 0,0 UV-I 5 W/m 0,0 km/h (0 Bft)
02.05.2013 20:48 16,8 C 15,1 C 62 % 1017,5 hPa 0,0 l/m 0 min 0 min 0,0 UV-I 5 W/m 7,7 km/h (2 Bft)
02.05.2013 20:50 16,8 C 15,1 C 62 % 1017,6 hPa 0,0 l/m 0 min 0 min 0,0 UV-I 0 W/m 7,7 km/h (2 Bft)
02.05.2013 20:52 16,7 C 15,1 C 62 % 1017,6 hPa 0,0 l/m 0 min 0 min 0,0 UV-I 0 W/m 5,1 km/h (1 Bft)
02.05.2013 20:54 16,7 C 15,1 C 63 % 1017,6 hPa 0,0 l/m 0 min 0 min 0,0 UV-I 0 W/m 5,1 km/h (1 Bft)
02.05.2013 20:56 16,7 C 15,1 C 63 % 1017,6 hPa 0,0 l/m 0 min 0 min 0,0 UV-I 0 W/m 0,0 km/h (0 Bft)
02.05.2013 20:58 16,7 C 15,1 C 63 % 1017,6 hPa 0,0 l/m 0 min 0 min 0,0 UV-I 0 W/m 2,6 km/h (1 Bft)
02.05.2013 21:00 16,7 C 15,1 C 63 % 1017,6 hPa 0,0 l/m 0 min 0 min 0,0 UV-I 0 W/m 12,9 km/h (3 Bft)
02.05.2013 21:02 16,6 C 15,1 C 63 % 1017,7 hPa 0,0 l/m 0 min 0 min 0,0 UV-I 0 W/m 10,3 km/h (2 Bft)
02.05.2013 21:04 16,6 C 15,1 C 63 % 1017,6 hPa 0,0 l/m 0 min 0 min 0,0 UV-I 0 W/m 2,6 km/h (1 Bft)
02.05.2013 21:06 16,6 C 15,1 C 64 % 1017,6 hPa 0,0 l/m 0 min 0 min 0,0 UV-I 0 W/m 7,7 km/h (2 Bft)
02.05.2013 21:08 16,6 C 15,1 C 64 % 1017,6 hPa 0,0 l/m 0 min 0 min 0,0 UV-I 0 W/m 7,7 km/h (2 Bft)
02.05.2013 21:10 16,5 C 15,1 C 64 % 1017,7 hPa 0,0 l/m 0 min 0 min 0,0 UV-I 0 W/m 2,6 km/h (1 Bft)
02.05.2013 21:12 16,5 C 15,1 C 64 % 1017,7 hPa 0,0 l/m 0 min 0 min 0,0 UV-I 0 W/m 0,0 km/h (0 Bft)
02.05.2013 21:14 16,5 C 15,1 C 64 % 1017,7 hPa 0,0 l/m 0 min 0 min 0,0 UV-I 0 W/m 2,6 km/h (1 Bft)
02.05.2013 21:16 16,4 C 14,6 C 64 % 1017,7 hPa 0,0 l/m 0 min 0 min 0,0 UV-I 0 W/m 2,6 km/h (1 Bft)
02.05.2013 21:18 16,4 C 14,6 C 64 % 1017,8 hPa 0,0 l/m 0 min 0 min 0,0 UV-I 0 W/m 0,0 km/h (0 Bft)
02.05.2013 21:20 16,4 C 14,6 C 64 % 1017,8 hPa 0,0 l/m 0 min 0 min 0,0 UV-I 0 W/m 7,7 km/h (2 Bft)
02.05.2013 21:22 16,4 C 14,6 C 64 % 1017,9 hPa 0,0 l/m 0 min 0 min 0,0 UV-I 0 W/m 2,6 km/h (1 Bft)
02.05.2013 21:24 16,3 C 14,6 C 64 % 1017,8 hPa 0,0 l/m 0 min 0 min 0,0 UV-I 0 W/m 18,0 km/h (3 Bft)
02.05.2013 21:26 16,3 C 14,6 C 64 % 1017,9 hPa 0,0 l/m 0 min 0 min 0,0 UV-I 0 W/m 7,7 km/h (2 Bft)
02.05.2013 21:28 16,3 C 14,6 C 64 % 1017,9 hPa 0,0 l/m 0 min 0 min 0,0 UV-I 0 W/m 12,9 km/h (3 Bft)
02.05.2013 21:30 16,3 C 14,6 C 64 % 1018,0 hPa 0,0 l/m 0 min 0 min 0,0 UV-I 0 W/m 7,7 km/h (2 Bft)
02.05.2013 21:32 16,2 C 14,6 C 64 % 1018,0 hPa 0,0 l/m 0 min 0 min 0,0 UV-I 0 W/m 0,0 km/h (0 Bft)
02.05.2013 21:34 16,2 C 14,6 C 64 % 1018,0 hPa 0,0 l/m 0 min 0 min 0,0 UV-I 0 W/m 2,6 km/h (1 Bft)
02.05.2013 21:36 16,2 C 14,6 C 64 % 1018,0 hPa 0,0 l/m 0 min 0 min 0,0 UV-I 0 W/m 2,6 km/h (1 Bft)
02.05.2013 21:38 16,2 C 14,6 C 64 % 1018,0 hPa 0,0 l/m 0 min 0 min 0,0 UV-I 0 W/m 15,4 km/h (3 Bft)
02.05.2013 21:40 16,1 C 14,6 C 65 % 1018,0 hPa 0,0 l/m 0 min 0 min 0,0 UV-I 0 W/m 15,4 km/h (3 Bft)
02.05.2013 21:42 16,1 C 14,6 C 65 % 1018,0 hPa 0,0 l/m 0 min 0 min 0,0 UV-I 0 W/m 5,1 km/h (1 Bft)
02.05.2013 21:44 16,1 C 14,6 C 65 % 1018,0 hPa 0,0 l/m 0 min 0 min 0,0 UV-I 0 W/m 10,3 km/h (2 Bft)
02.05.2013 21:46 16,0 C 14,6 C 65 % 1018,0 hPa 0,0 l/m 0 min 0 min 0,0 UV-I 0 W/m 0,0 km/h (0 Bft)
02.05.2013 21:48 16,0 C 14,6 C 65 % 1018,0 hPa 0,0 l/m 0 min 0 min 0,0 UV-I 0 W/m 2,6 km/h (1 Bft)
02.05.2013 21:50 15,9 C 14,0 C 66 % 1018,1 hPa 0,0 l/m 0 min 0 min 0,0 UV-I 0 W/m 5,1 km/h (1 Bft)
02.05.2013 21:52 15,9 C 14,0 C 65 % 1018,1 hPa 0,0 l/m 0 min 0 min 0,0 UV-I 0 W/m 10,3 km/h (2 Bft)
02.05.2013 21:54 15,9 C 14,0 C 65 % 1018,2 hPa 0,0 l/m 0 min 0 min 0,0 UV-I 0 W/m 15,4 km/h (3 Bft)
02.05.2013 21:56 15,8 C 14,0 C 65 % 1018,3 hPa 0,0 l/m 0 min 0 min 0,0 UV-I 0 W/m 5,1 km/h (1 Bft)
02.05.2013 21:58 15,8 C 14,0 C 66 % 1018,2 hPa 0,0 l/m 0 min 0 min 0,0 UV-I 0 W/m 10,3 km/h (2 Bft)
02.05.2013 22:00 15,8 C 14,0 C 66 % 1018,2 hPa 0,0 l/m 0 min 0 min 0,0 UV-I 0 W/m 7,7 km/h (2 Bft)
02.05.2013 22:02 15,7 C 14,0 C 66 % 1018,2 hPa 0,0 l/m 0 min 0 min 0,0 UV-I 0 W/m 23,2 km/h (4 Bft)
02.05.2013 22:04 15,7 C 14,0 C 66 % 1018,1 hPa 0,0 l/m 0 min 0 min 0,0 UV-I 0 W/m 7,7 km/h (2 Bft)
02.05.2013 22:06 15,6 C 13,4 C 66 % 1018,1 hPa 0,0 l/m 0 min 0 min 0,0 UV-I 0 W/m 2,6 km/h (1 Bft)
02.05.2013 22:08 15,6 C 13,4 C 66 % 1018,2 hPa 0,0 l/m 0 min 0 min 0,0 UV-I 0 W/m 2,6 km/h (1 Bft)
02.05.2013 22:10 15,5 C 13,4 C 67 % 1018,1 hPa 0,0 l/m 0 min 0 min 0,0 UV-I 0 W/m 2,6 km/h (1 Bft)
02.05.2013 22:12 15,4 C 13,4 C 67 % 1018,2 hPa 0,0 l/m 0 min 0 min 0,0 UV-I 0 W/m 5,1 km/h (1 Bft)
02.05.2013 22:14 15,4 C 13,4 C 67 % 1018,2 hPa 0,0 l/m 0 min 0 min 0,0 UV-I 0 W/m 2,6 km/h (1 Bft)
02.05.2013 22:16 15,4 C 13,4 C 67 % 1018,1 hPa 0,0 l/m 0 min 0 min 0,0 UV-I 0 W/m 5,1 km/h (1 Bft)
02.05.2013 22:18 15,3 C 13,4 C 67 % 1018,1 hPa 0,0 l/m 0 min 0 min 0,0 UV-I 0 W/m 10,3 km/h (2 Bft)
02.05.2013 22:20 15,3 C 13,4 C 68 % 1018,1 hPa 0,0 l/m 0 min 0 min 0,0 UV-I 0 W/m 10,3 km/h (2 Bft)
02.05.2013 22:22 15,2 C 13,4 C 68 % 1018,1 hPa 0,0 l/m 0 min 0 min 0,0 UV-I 0 W/m 20,6 km/h (4 Bft)
02.05.2013 22:24 15,2 C 13,4 C 68 % 1018,1 hPa 0,0 l/m 0 min 0 min 0,0 UV-I 0 W/m 2,6 km/h (1 Bft)
02.05.2013 22:26 15,2 C 13,4 C 68 % 1018,1 hPa 0,0 l/m 0 min 0 min 0,0 UV-I 0 W/m 0,0 km/h (0 Bft)
02.05.2013 22:28 15,1 C 12,9 C 68 % 1018,1 hPa 0,0 l/m 0 min 0 min 0,0 UV-I 0 W/m 2,6 km/h (1 Bft)
02.05.2013 22:30 15,1 C 12,9 C 68 % 1018,0 hPa 0,0 l/m 0 min 0 min 0,0 UV-I 0 W/m 2,6 km/h (1 Bft)
02.05.2013 22:32 15,0 C 12,9 C 68 % 1018,0 hPa 0,0 l/m 0 min 0 min 0,0 UV-I 0 W/m 7,7 km/h (2 Bft)
02.05.2013 22:34 14,9 C 12,9 C 69 % 1018,0 hPa 0,0 l/m 0 min 0 min 0,0 UV-I 0 W/m 2,6 km/h (1 Bft)
02.05.2013 22:36 14,9 C 12,9 C 69 % 1018,1 hPa 0,0 l/m 0 min 0 min 0,0 UV-I 0 W/m 7,7 km/h (2 Bft)
02.05.2013 22:38 14,8 C 12,9 C 69 % 1018,1 hPa 0,0 l/m 0 min 0 min 0,0 UV-I 0 W/m 0,0 km/h (0 Bft)
02.05.2013 22:40 14,8 C 12,9 C 69 % 1018,1 hPa 0,0 l/m 0 min 0 min 0,0 UV-I 0 W/m 20,6 km/h (4 Bft)
02.05.2013 22:42 14,8 C 12,9 C 69 % 1018,1 hPa 0,0 l/m 0 min 0 min 0,0 UV-I 0 W/m 18,0 km/h (3 Bft)
02.05.2013 22:44 14,7 C 12,9 C 69 % 1018,1 hPa 0,0 l/m 0 min 0 min 0,0 UV-I 0 W/m 2,6 km/h (1 Bft)
02.05.2013 22:46 14,7 C 12,9 C 69 % 1018,1 hPa 0,0 l/m 0 min 0 min 0,0 UV-I 0 W/m 0,0 km/h (0 Bft)
02.05.2013 22:48 14,7 C 12,9 C 69 % 1018,1 hPa 0,0 l/m 0 min 0 min 0,0 UV-I 0 W/m 7,7 km/h (2 Bft)
02.05.2013 22:50 14,7 C 12,9 C 70 % 1018,1 hPa 0,0 l/m 0 min 0 min 0,0 UV-I 0 W/m 12,9 km/h (3 Bft)
02.05.2013 22:52 14,6 C 12,9 C 70 % 1018,2 hPa 0,0 l/m 0 min 0 min 0,0 UV-I 0 W/m 10,3 km/h (2 Bft)
02.05.2013 22:54 14,6 C 12,9 C 70 % 1018,2 hPa 0,0 l/m 0 min 0 min 0,0 UV-I 0 W/m 2,6 km/h (1 Bft)
02.05.2013 22:56 14,6 C 12,9 C 70 % 1018,1 hPa 0,0 l/m 0 min 0 min 0,0 UV-I 0 W/m 0,0 km/h (0 Bft)
02.05.2013 22:58 14,6 C 12,9 C 70 % 1018,2 hPa 0,0 l/m 0 min 0 min 0,0 UV-I 0 W/m 0,0 km/h (0 Bft)
02.05.2013 23:00 14,5 C 12,9 C 70 % 1018,3 hPa 0,0 l/m 0 min 0 min 0,0 UV-I 0 W/m 2,6 km/h (1 Bft)
02.05.2013 23:02 14,5 C 12,9 C 70 % 1018,1 hPa 0,0 l/m 0 min 0 min 0,0 UV-I 0 W/m 0,0 km/h (0 Bft)
02.05.2013 23:04 14,4 C 12,9 C 70 % 1018,3 hPa 0,0 l/m 0 min 0 min 0,0 UV-I 0 W/m 0,0 km/h (0 Bft)
02.05.2013 23:06 14,4 C 12,9 C 71 % 1018,2 hPa 0,0 l/m 0 min 0 min 0,0 UV-I 0 W/m 0,0 km/h (0 Bft)
02.05.2013 23:08 14,4 C 12,9 C 71 % 1018,2 hPa 0,0 l/m 0 min 0 min 0,0 UV-I 0 W/m 0,0 km/h (0 Bft)
02.05.2013 23:10 14,4 C 12,9 C 71 % 1018,2 hPa 0,0 l/m 0 min 0 min 0,0 UV-I 0 W/m 0,0 km/h (0 Bft)
02.05.2013 23:12 14,4 C 12,9 C 71 % 1018,1 hPa 0,0 l/m 0 min 0 min 0,0 UV-I 0 W/m 0,0 km/h (0 Bft)
02.05.2013 23:14 14,3 C 12,9 C 71 % 1018,0 hPa 0,0 l/m 0 min 0 min 0,0 UV-I 0 W/m 0,0 km/h (0 Bft)
02.05.2013 23:16 14,3 C 12,9 C 71 % 1018,1 hPa 0,0 l/m 0 min 0 min 0,0 UV-I 0 W/m 0,0 km/h (0 Bft)
02.05.2013 23:18 14,3 C 12,9 C 71 % 1018,0 hPa 0,0 l/m 0 min 0 min 0,0 UV-I 0 W/m 2,6 km/h (1 Bft)
02.05.2013 23:20 14,3 C 12,9 C 71 % 1018,1 hPa 0,0 l/m 0 min 0 min 0,0 UV-I 0 W/m 2,6 km/h (1 Bft)
02.05.2013 23:22 14,3 C 12,9 C 71 % 1018,2 hPa 0,0 l/m 0 min 0 min 0,0 UV-I 0 W/m 0,0 km/h (0 Bft)
02.05.2013 23:24 14,2 C 12,9 C 71 % 1018,0 hPa 0,0 l/m 0 min 0 min 0,0 UV-I 0 W/m 0,0 km/h (0 Bft)
02.05.2013 23:26 14,2 C 12,9 C 71 % 1018,1 hPa 0,0 l/m 0 min 0 min 0,0 UV-I 0 W/m 7,7 km/h (2 Bft)
02.05.2013 23:28 14,2 C 12,9 C 71 % 1018,2 hPa 0,0 l/m 0 min 0 min 0,0 UV-I 0 W/m 0,0 km/h (0 Bft)
02.05.2013 23:30 14,2 C 12,9 C 71 % 1018,1 hPa 0,0 l/m 0 min 0 min 0,0 UV-I 0 W/m 2,6 km/h (1 Bft)
02.05.2013 23:32 14,2 C 12,9 C 71 % 1018,2 hPa 0,0 l/m 0 min 0 min 0,0 UV-I 0 W/m 0,0 km/h (0 Bft)
02.05.2013 23:34 14,1 C 12,9 C 71 % 1018,3 hPa 0,0 l/m 0 min 0 min 0,0 UV-I 0 W/m 0,0 km/h (0 Bft)
02.05.2013 23:36 14,1 C 12,9 C 72 % 1018,3 hPa 0,0 l/m 0 min 0 min 0,0 UV-I 0 W/m 0,0 km/h (0 Bft)
02.05.2013 23:38 14,1 C 12,9 C 72 % 1018,3 hPa 0,0 l/m 0 min 0 min 0,0 UV-I 0 W/m 0,0 km/h (0 Bft)
02.05.2013 23:40 14,0 C 12,9 C 72 % 1018,3 hPa 0,0 l/m 0 min 0 min 0,0 UV-I 0 W/m 0,0 km/h (0 Bft)
02.05.2013 23:42 14,0 C 12,9 C 72 % 1018,3 hPa 0,0 l/m 0 min 0 min 0,0 UV-I 0 W/m 0,0 km/h (0 Bft)
02.05.2013 23:44 14,0 C 12,3 C 72 % 1018,3 hPa 0,0 l/m 0 min 0 min 0,0 UV-I 0 W/m 0,0 km/h (0 Bft)
02.05.2013 23:46 14,0 C 12,3 C 72 % 1018,3 hPa 0,0 l/m 0 min 0 min 0,0 UV-I 0 W/m 2,6 km/h (1 Bft)
02.05.2013 23:48 14,0 C 12,3 C 72 % 1018,4 hPa 0,0 l/m 0 min 0 min 0,0 UV-I 0 W/m 0,0 km/h (0 Bft)
02.05.2013 23:50 14,0 C 12,3 C 72 % 1018,3 hPa 0,0 l/m 0 min 0 min 0,0 UV-I 0 W/m 0,0 km/h (0 Bft)
02.05.2013 23:52 14,0 C 12,3 C 72 % 1018,3 hPa 0,0 l/m 0 min 0 min 0,0 UV-I 0 W/m 0,0 km/h (0 Bft)
02.05.2013 23:54 14,0 C 12,3 C 72 % 1018,2 hPa 0,0 l/m 0 min 0 min 0,0 UV-I 0 W/m 0,0 km/h (0 Bft)
02.05.2013 23:56 14,0 C 12,3 C 72 % 1018,3 hPa 0,0 l/m 0 min 0 min 0,0 UV-I 0 W/m 0,0 km/h (0 Bft)
02.05.2013 23:58 13,9 C 12,3 C 72 % 1018,2 hPa 0,0 l/m 0 min 0 min 0,0 UV-I 0 W/m 0,0 km/h (0 Bft)
_ Min-Zeit 06:40 06:02 15:48 17:42 - - - - - 00:00
Minimum _ 11,3 C 9,0 C 53 % 1017,1 hPa - - - - - 0,0 km/h (0 Bft)
_ Max-Zeit 15:12 12:02 07:12 00:06 00:00 11:08 01:02 14:06 14:08 16:22
Maximum _ 20,9 C 24,0 C 85 % 1019,4 hPa 0,0 l/m 2 min 2 min 3,6 UV-I 942 W/m 30,9 km/h
NW (5 Bft)
Durchschnitt _ 15,3 C 14,8 C 70 % 1018,4 hPa #0,0 l/m #3:34 h #54 min. 1,8 UV-I 283 W/m 5,5 km/h (1 Bft)
© 2013 W. Hausmann